[{"header": {"dx": 0.06612293990616946, "dy": 0.0552356325346848, "nx": 98, "ny": 59, "la1": 35.046912555036876, "la2": 31.78801023549047, "lo1": -121.43107172385933, "lo2": -114.95102361305473, "refTime": "2026041102", "parameterCategory": 1, "parameterNumber": 2}, "data": [1.69, 2.37, 2.23, 2.73, 2.89, 2.89, 2.86, 3.35, 3.52, 3.8, 3.8, 3.81, 4.96, 5.3, 5.37, 3.22, 1.72, 1.63, 1.1, 2.26, 2.4, 3.4, 4.03, 4.46, 4.83, 5.52, 5.76, 5.41, 5.41, 5.51, 5.99, 5.4, 3.95, 3.33, 1.49, 0.0, -0.71, -1.66, 0.0, 0.6, 0.76, 0.89, 1.05, 2.12, 3.6, 5.38, 6.42, 6.79, 7.08, 7.36, 8.12, 8.12, 8.53, 9.23, 9.62, 9.92, 10.28, 9.67, 9.65, 9.65, 8.93, 9.3, 9.92, 10.9, 11.26, 10.28, 8.94, 8.27, 8.93, 10.28, 11.9, 11.88, 11.75, 10.68, 10.95, 12.04, 12.37, 11.28, 9.26, 6.66, 6.26, 7.15, 8.05, 8.46, 9.11, 9.15, 7.89, 5.3, 4.71, 5.49, 6.32, 6.24, 6.95, 6.24, 5.59, 4.56, 3.69, 3.6, 2.23, 2.23, 2.73, 2.92, 2.23, 2.37, 2.71, 2.86, 3.52, 4.0, 3.52, 4.07, 4.34, 4.46, 4.44, 3.52, 0.83, 1.18, 1.1, 1.63, 2.21, 3.17, 3.35, 3.6, 3.91, 4.0, 4.83, 4.07, 3.95, 3.85, 3.82, 3.14, 3.04, 2.35, 0.76, -0.0, -0.45, 0.0, -0.0, -0.0, -0.0, 1.05, 2.21, 3.15, 4.83, 6.42, 6.88, 7.18, 7.18, 7.9, 7.82, 8.22, 8.93, 9.21, 9.82, 10.29, 9.9, 9.3, 9.3, 8.68, 8.68, 9.04, 9.67, 10.29, 10.29, 9.62, 8.93, 8.6, 9.27, 10.9, 12.47, 12.39, 11.62, 11.09, 10.95, 11.87, 11.66, 11.28, 9.26, 6.66, 6.26, 7.15, 8.05, 8.46, 9.11, 9.15, 7.89, 5.3, 4.71, 5.49, 6.32, 6.24, 6.95, 6.24, 5.59, 4.56, 3.69, 3.6, 2.23, 2.4, 2.92, 2.75, 2.4, 2.23, 2.37, 2.86, 3.52, 3.52, 3.32, 3.52, 4.12, 3.91, 3.69, 2.31, 0.79, 0.78, 0.83, 1.07, 1.45, 2.12, 3.17, 3.52, 4.4, 4.12, 3.45, 3.15, 2.35, 2.31, 1.6, 0.79, 0.77, 1.11, 1.54, 1.14, 2.44, 2.2, 0.83, -0.0, 0.74, 1.47, 3.21, 4.71, 5.64, 6.53, 6.42, 6.88, 6.88, 7.59, 7.9, 8.6, 9.3, 9.66, 9.46, 10.28, 9.67, 9.3, 8.68, 8.68, 8.03, 8.68, 9.3, 9.3, 8.93, 8.76, 9.48, 9.9, 10.29, 10.87, 12.29, 12.7, 12.14, 11.37, 9.83, 10.25, 10.49, 10.75, 8.67, 5.77, 4.85, 6.26, 6.71, 6.66, 7.28, 7.15, 6.01, 4.6, 4.71, 5.94, 6.24, 6.64, 6.95, 6.95, 6.95, 6.24, 5.49, 4.96, 2.26, 2.26, 2.75, 2.75, 2.26, 2.23, 2.23, 2.37, 2.86, 3.52, 3.32, 3.32, 3.8, 2.9, 2.2, 0.79, 0.84, 0.83, 0.74, 0.74, 0.78, 1.14, 2.49, 3.09, 4.0, 4.66, 2.54, 1.58, 0.85, -0.0, -0.0, -1.5, -1.55, -0.0, 1.08, 2.16, 4.28, 5.4, 3.85, 2.39, 1.54, 2.23, 4.0, 4.83, 5.76, 6.53, 6.53, 7.27, 7.27, 7.97, 7.94, 8.65, 9.3, 9.66, 9.3, 9.67, 9.3, 8.68, 8.68, 8.03, 8.03, 8.68, 8.32, 7.27, 6.97, 8.05, 10.04, 11.1, 11.42, 10.73, 10.8, 11.09, 11.2, 10.53, 9.68, 8.63, 8.8, 9.11, 8.63, 4.87, 3.97, 5.31, 5.31, 4.92, 4.02, 3.84, 3.91, 4.6, 5.59, 6.64, 7.02, 7.02, 7.02, 7.02, 7.35, 7.35, 6.32, 5.21, 2.26, 2.26, 2.96, 2.96, 2.26, 1.73, 1.71, 2.23, 2.89, 2.86, 3.32, 2.83, 3.15, 2.35, 1.6, 0.83, -0.0, -0.0, -0.0, -0.0, 1.1, 1.25, 1.18, 2.26, 2.4, 2.33, 2.46, -0.0, -0.0, -0.0, -1.54, -2.39, -3.11, -2.44, -0.0, 2.21, 3.52, 6.69, 5.64, 3.15, 2.44, 2.99, 3.8, 5.21, 5.76, 6.24, 6.53, 7.27, 7.97, 7.97, 7.97, 8.65, 8.65, 9.3, 9.66, 9.3, 8.65, 8.68, 8.03, 7.68, 7.68, 8.06, 7.02, 5.38, 5.51, 7.79, 10.34, 11.76, 11.82, 10.9, 9.3, 9.92, 10.45, 10.91, 10.28, 8.93, 7.89, 7.71, 7.47, 5.2, 3.51, 3.32, 5.16, 4.66, 3.22, 2.47, 2.99, 4.71, 6.01, 7.02, 7.02, 7.02, 7.06, 6.7, 7.06, 7.06, 6.06, 5.0, 2.44, 2.77, 2.77, 2.77, 2.29, 1.63, 1.73, 2.4, 2.23, 2.89, 2.86, 2.83, 2.44, 1.84, 0.82, -0.0, -0.0, -0.0, -0.0, -0.0, -0.0, -0.0, -0.0, 1.11, 1.2, 1.2, -0.0, -0.0, -0.0, -0.0, -0.76, -1.65, -2.51, -2.47, -0.0, 1.7, 4.01, 6.82, 5.77, 3.33, 1.55, 2.4, 4.0, 5.38, 5.49, 6.32, 7.02, 7.02, 8.03, 8.03, 8.03, 7.97, 8.65, 8.65, 9.3, 9.3, 9.04, 8.68, 8.03, 7.68, 7.69, 7.06, 5.49, 3.95, 4.58, 7.25, 10.04, 11.7, 11.7, 11.76, 10.51, 9.56, 10.18, 11.2, 11.52, 10.91, 9.27, 8.0, 8.24, 5.86, 2.91, 3.07, 3.51, 3.07, 2.2, 2.26, 3.91, 5.49, 6.68, 7.06, 7.06, 7.69, 7.32, 6.44, 6.44, 6.08, 5.43, 4.65, 2.29, 2.77, 2.77, 2.77, 2.29, 1.76, 1.63, 1.73, 2.26, 2.23, 2.21, 1.78, 1.67, 1.65, 1.14, -0.0, -0.0, -0.0, 0.78, 0.76, -0.0, -0.78, -0.79, -0.0, 1.11, -0.0, -0.0, -0.0, 1.11, 0.85, -0.0, -0.79, -1.63, -0.82, -0.0, 0.81, 3.22, 5.93, 5.06, 2.6, 1.14, 1.23, 3.4, 4.46, 6.01, 6.73, 7.41, 7.44, 7.07, 8.0, 8.15, 7.64, 8.3, 8.68, 8.68, 9.3, 8.68, 8.06, 7.41, 7.41, 7.06, 5.59, 3.88, 3.29, 4.58, 7.01, 9.31, 10.34, 11.38, 12.78, 12.49, 10.9, 10.19, 11.28, 12.08, 12.94, 12.29, 10.15, 8.63, 10.01, 6.28, 3.51, 3.07, 2.86, 3.11, 3.6, 5.49, 6.01, 7.06, 7.06, 7.54, 7.92, 7.32, 6.44, 6.08, 5.09, 4.36, 4.36, 2.29, 2.77, 3.0, 3.0, 2.29, 1.76, 1.76, 1.76, 2.26, 2.26, 1.61, 0.58, 0.89, 0.84, 1.05, -0.0, -0.0, -0.0, 0.72, 0.82, -0.0, -0.73, -1.55, -0.82, -0.0, -0.0, -0.0, -0.0, 1.25, 1.2, -0.0, -0.0, -0.0, -0.0, 0.82, 1.66, 2.41, 4.11, 4.74, 3.49, 1.3, 2.2, 3.49, 4.74, 5.59, 7.07, 8.05, 7.67, 6.39, 6.95, 6.73, 7.68, 8.03, 8.03, 8.67, 8.67, 8.3, 7.07, 6.79, 6.44, 5.77, 4.12, 3.11, 4.01, 4.87, 6.33, 8.76, 10.18, 11.2, 12.87, 14.11, 13.43, 11.75, 11.87, 12.58, 12.49, 12.37, 10.52, 9.83, 10.45, 9.58, 5.78, 3.07, 2.79, 3.55, 5.0, 6.35, 7.07, 6.7, 7.07, 7.54, 7.54, 7.07, 7.07, 5.43, 4.43, 4.07, 4.36, 2.77, 3.0, 3.0, 3.0, 2.32, 1.65, 1.65, 1.65, 2.29, 2.29, 1.2, -0.0, -0.0, 0.89, 1.84, 0.89, -0.0, -0.0, -0.0, -0.0, -0.0, -0.0, -0.88, -0.96, -0.0, -0.0, -0.0, -0.0, -0.0, -0.0, -0.0, -0.0, -0.0, 1.23, 2.4, 2.41, 1.4, 3.16, 3.79, 4.65, 3.49, 3.22, 4.29, 5.37, 6.4, 7.6, 8.0, 7.81, 6.88, 7.27, 7.27, 7.06, 7.41, 7.69, 8.05, 7.67, 7.44, 6.39, 6.11, 5.46, 4.16, 3.06, 3.11, 3.85, 5.41, 6.57, 8.6, 10.28, 11.53, 13.43, 14.54, 14.79, 13.99, 12.66, 12.79, 12.87, 11.52, 10.25, 9.36, 8.84, 7.47, 6.36, 4.46, 4.43, 5.06, 5.36, 5.69, 6.44, 7.2, 7.28, 7.28, 6.96, 6.35, 6.08, 5.06, 4.65, 4.36, 3.72, 2.8, 3.0, 3.0, 2.8, 2.32, 1.8, 1.65, 1.65, 2.14, 2.32, 1.8, 0.58, -0.0, 0.59, 1.72, 1.72, 0.96, -0.0, -0.0, -0.0, -0.0, -0.0, -0.0, -0.0, -0.0, -0.0, -1.41, -1.41, -1.3, -0.0, -0.0, -0.0, 1.27, 2.73, 3.49, 3.49, 2.23, 1.98, 3.79, 5.01, 5.46, 6.07, 6.94, 6.94, 6.79, 7.6, 7.06, 7.27, 7.82, 7.18, 6.95, 7.35, 7.41, 7.07, 6.82, 6.4, 5.82, 5.82, 5.43, 4.01, 2.51, 2.39, 4.32, 4.8, 5.52, 6.64, 8.06, 10.09, 11.73, 13.23, 14.42, 15.04, 15.04, 14.03, 13.25, 13.39, 11.62, 9.39, 6.71, 5.05, 5.64, 7.09, 6.28, 6.98, 6.35, 5.36, 5.69, 5.69, 5.95, 6.32, 6.35, 6.35, 6.08, 5.37, 5.37, 5.37, 4.36, 3.43, 2.8, 2.8, 3.22, 2.8, 2.8, 2.32, 1.8, 1.8, 2.32, 2.32, 2.16, 1.7, 0.59, 0.61, 1.7, 1.7, 1.7, 0.57, -0.0, -0.0, -0.85, -0.0, -0.0, -0.0, -0.0, -1.41, -1.27, -2.84, -1.9, -0.0, 1.9, 0.63, 0.95, 2.53, 2.68, 4.11, 4.11, 4.65, 5.21, 6.4, 7.03, 7.35, 7.89, 9.11, 8.17, 6.44, 6.06, 5.89, 5.89, 6.24, 6.42, 7.08, 7.08, 6.42, 5.59, 5.06, 3.79, 2.98, 3.16, 2.47, 2.44, 3.11, 4.13, 5.41, 7.18, 7.68, 8.4, 9.33, 10.68, 12.27, 13.21, 14.15, 14.15, 13.79, 13.41, 12.94, 10.63, 6.26, 2.8, 3.2, 4.12, 5.68, 7.77, 8.73, 7.73, 7.15, 6.23, 5.64, 6.32, 5.69, 6.35, 6.06, 6.08, 5.37, 5.3, 5.3, 4.36, 2.88, 2.8, 2.8, 3.22, 3.22, 2.8, 2.32, 1.67, 1.67, 2.32, 2.8, 2.82, 2.36, 1.16, 1.19, 1.76, 1.76, 1.58, 1.58, 1.16, 0.54, -0.0, -0.0, -0.0, -0.0, -1.41, -2.48, -3.16, -2.17, -2.24, 0.45, 0.89, 2.6, 2.6, 2.4, 2.97, 3.9, 5.16, 5.34, 5.43, 6.8, 7.35, 7.47, 7.71, 8.67, 6.8, 4.43, 3.4, 3.6, 3.8, 3.52, 4.6, 5.4, 5.55, 4.76, 4.71, 4.75, 4.71, 2.0, -0.0, 0.82, 2.39, 3.85, 4.6, 5.64, 6.88, 7.9, 8.65, 8.63, 8.82, 9.9, 11.8, 12.49, 11.15, 10.16, 10.02, 8.63, 4.02, 1.24, 2.12, 3.61, 4.01, 4.75, 6.31, 8.5, 8.59, 8.59, 8.51, 7.73, 7.15, 7.27, 7.61, 6.98, 6.35, 5.37, 5.3, 5.3, 3.9, 3.2, 2.8, 2.8, 3.47, 3.47, 3.04, 2.16, 1.67, 1.67, 2.16, 2.8, 3.04, 2.82, 2.18, 1.7, 1.73, 2.22, 1.8, 1.76, 1.58, 1.61, 1.24, -0.0, -0.0, -0.54, -1.2, -1.9, -2.68, -2.91, -2.4, -1.26, -0.0, 2.53, 2.86, 3.2, 3.04, 3.47, 4.24, 4.84, 5.21, 6.0, 6.7, 6.7, 6.51, 4.8, 2.84, 2.2, 2.26, 2.21, 3.52, 3.52, 2.83, 3.02, 2.82, 2.97, 4.34, 5.78, 8.67, 8.23, 2.53, -0.0, 1.56, 4.01, 4.92, 4.83, 5.41, 7.12, 8.2, 8.05, 6.45, 7.01, 10.54, 11.76, 8.06, 3.6, 2.53, 0.95, -0.0, 0.8, 2.88, 4.24, 5.02, 5.4, 7.02, 8.46, 8.61, 9.39, 10.34, 9.8, 9.2, 9.21, 8.86, 7.95, 6.35, 5.3, 5.59, 5.3, 3.69, 3.6, 3.04, 3.47, 3.47, 3.47, 3.04, 2.36, 2.16, 1.84, 2.36, 3.04, 3.47, 3.47, 2.36, 2.18, 2.2, 2.22, 1.58, 1.76, 1.76, 2.23, 1.61, 1.24, 0.54, -0.0, -0.0, -0.57, -1.61, -2.21, -1.88, -1.2, -0.0, 1.13, 4.09, 3.58, 3.83, 3.22, 2.84, 4.19, 4.84, 5.59, 6.07, 5.59, 4.77, 5.06, 3.68, 2.54, 1.52, 2.32, 2.32, 3.6, 2.54, 2.4, 1.25, 2.54, 3.52, 5.28, 7.68, 11.43, 9.22, 2.35, 0.79, 3.34, 4.48, 4.32, 4.58, 6.31, 6.6, 5.81, 6.16, 6.2, 8.86, 11.8, 10.89, 3.16, -2.41, -2.97, -0.74, 0.75, 3.91, 5.4, 6.21, 7.24, 8.53, 9.84, 8.49, 9.9, 10.91, 10.9, 9.82, 9.78, 9.19, 6.98, 6.32, 6.64, 6.01, 5.49, 4.37, 4.6, 3.47, 3.47, 3.47, 3.47, 2.82, 2.82, 2.36, 2.36, 2.36, 2.82, 3.47, 3.47, 3.04, 2.82, 2.61, 2.44, 1.76, 1.76, 2.22, 2.51, 2.15, 1.24, 1.16, 1.61, 1.2, -0.0, -0.54, -1.16, -1.16, -0.51, -0.0, 0.61, 2.73, 4.46, 4.11, 3.49, 3.76, 3.79, 6.23, 5.16, 5.59, 6.79, 5.36, 4.47, 3.4, 2.26, 1.18, 2.49, 2.49, 2.0, 3.76, 2.6, 2.23, 2.23, 4.11, 4.74, 5.69, 8.22, 10.75, 6.94, 2.28, 3.11, 4.54, 4.72, 5.4, 5.8, 5.73, 6.64, 6.94, 6.71, 6.33, 10.43, 14.37, 12.16, 3.04, -1.0, -0.0, 2.44, 5.52, 7.08, 7.9, 8.65, 9.78, 10.26, 9.86, 10.23, 10.8, 10.4, 10.53, 10.15, 8.24, 6.35, 6.68, 6.98, 6.68, 4.6, 4.6, 4.6, 3.47, 3.47, 3.47, 3.22, 3.22, 2.82, 2.36, 2.18, 2.36, 2.82, 3.04, 3.47, 3.22, 2.8, 3.47, 2.84, 2.44, 1.73, 2.44, 2.53, 1.9, 1.0, 1.11, 2.23, 2.0, 0.63, -0.0, -0.61, -0.51, -0.0, -0.0, 0.51, 1.61, 4.09, 2.98, 2.53, 3.35, 3.79, 5.2, 5.2, 4.22, 4.11, 4.75, 3.91, 3.68, 2.49, 1.32, 2.32, 2.8, 3.76, 4.74, 2.84, 3.16, 2.98, 3.72, 4.4, 5.36, 7.07, 8.73, 7.27, 4.6, 4.4, 5.72, 6.69, 5.44, 5.72, 6.53, 7.9, 7.9, 5.72, 4.83, 8.9, 15.03, 18.15, 14.3, 7.03, 4.16, 5.49, 7.35, 7.68, 9.05, 9.2, 9.49, 9.83, 10.02, 10.16, 10.25, 9.83, 9.83, 9.33, 7.35, 6.35, 6.98, 6.01, 5.86, 4.87, 4.87, 4.87, 3.22, 3.49, 3.49, 3.49, 3.49, 2.82, 2.18, 2.18, 2.18, 2.36, 2.82, 3.47, 3.22, 3.45, 3.22, 2.82, 2.4, 2.18, 2.84, 2.51, 1.24, 0.59, 1.16, 2.2, 1.88, 0.6, -0.0, -0.0, -0.0, -0.0, -0.0, 0.51, 1.16, 2.48, 1.8, 1.49, 1.66, 2.48, 2.48, 4.11, 4.11, 3.35, 3.68, 3.22, 3.68, 2.66, 2.49, 2.8, 3.76, 5.36, 5.75, 6.13, 6.52, 6.7, 6.28, 6.28, 6.7, 7.81, 7.76, 7.47, 6.69, 6.01, 6.87, 7.07, 7.76, 5.82, 6.32, 6.87, 7.9, 7.95, 8.15, 9.34, 14.7, 18.88, 17.79, 13.14, 10.18, 10.28, 9.3, 8.24, 8.55, 8.4, 8.14, 8.38, 9.36, 8.94, 9.36, 7.92, 8.4, 7.03, 6.32, 5.72, 5.38, 4.94, 4.71, 4.94, 4.94, 4.94, 3.49, 3.49, 3.49, 3.49, 3.49, 3.08, 2.84, 2.4, 2.4, 2.84, 3.08, 2.82, 3.04, 3.22, 3.22, 3.22, 2.36, 2.16, 2.82, 2.22, 0.61, -0.0, 0.58, 1.67, 1.57, 1.2, 0.51, 0.57, 0.57, 0.57, 1.11, 1.13, 1.16, 1.16, 1.16, 0.99, -0.0, 1.4, 2.84, 3.35, 2.84, 2.48, 2.48, 3.48, 4.74, 5.06, 4.02, 4.74, 5.36, 6.13, 6.64, 7.21, 6.8, 6.32, 6.28, 6.01, 7.07, 7.44, 6.87, 6.64, 6.64, 7.21, 7.76, 7.81, 7.81, 6.28, 5.86, 5.75, 7.07, 8.15, 10.62, 11.66, 15.47, 18.35, 16.71, 13.14, 12.49, 12.87, 10.91, 8.67, 8.0, 7.89, 7.89, 7.12, 6.22, 7.11, 5.16, 7.89, 7.6, 7.28, 7.07, 5.46, 4.36, 4.94, 5.59, 5.3, 6.32, 6.32, 3.49, 3.49, 3.83, 3.83, 3.49, 3.22, 2.84, 2.4, 2.4, 2.84, 2.84, 2.84, 2.82, 3.04, 3.47, 3.33, 2.18, 2.16, 2.16, 2.18, 1.08, -0.0, -0.0, 0.78, 1.72, 2.49, 1.7, 1.6, 1.7, 1.57, 1.76, 1.8, 1.13, 1.33, 1.16, 0.54, -0.0, 0.95, 2.4, 3.39, 4.15, 4.57, 5.2, 5.81, 5.75, 5.75, 5.36, 5.75, 6.23, 6.64, 7.21, 7.21, 6.52, 5.93, 5.69, 6.01, 6.52, 6.87, 6.64, 7.21, 6.87, 7.76, 7.76, 6.4, 6.28, 5.86, 4.8, 5.75, 6.7, 7.74, 10.22, 12.14, 16.09, 18.6, 16.54, 12.7, 11.2, 12.39, 13.43, 12.39, 8.63, 6.98, 6.21, 6.22, 5.16, 4.73, 5.34, 6.13, 8.0, 7.46, 7.07, 6.06, 4.65, 4.22, 5.21, 6.01, 6.06, 6.06, 3.83, 3.83, 3.83, 4.11, 4.11, 3.22, 2.84, 2.84, 2.2, 2.84, 2.84, 2.84, 2.84, 3.08, 3.49, 3.22, 2.84, 1.7, 1.72, 1.6, 1.6, 1.05, 0.54, 0.88, 1.7, 2.6, 2.8, 2.4, 2.2, 1.76, 1.76, 1.8, 1.8, 1.6, 1.16, 1.2, 0.57, 1.2, 1.79, 2.68, 3.98, 4.77, 5.24, 5.7, 5.51, 6.64, 6.23, 6.23, 6.23, 6.79, 6.79, 6.79, 5.59, 4.75, 3.72, 4.43, 6.87, 5.72, 6.79, 7.76, 7.6, 7.2, 7.81, 7.81, 6.0, 4.84, 5.21, 5.46, 6.4, 7.71, 9.11, 11.66, 15.34, 18.35, 17.44, 13.67, 11.15, 10.7, 12.58, 11.23, 9.11, 7.11, 5.75, 5.31, 6.07, 6.36, 6.13, 6.36, 6.54, 6.25, 6.08, 6.32, 5.3, 5.3, 6.32, 7.02, 7.69, 7.69, 3.83, 4.11, 4.11, 4.11, 4.11, 3.49, 3.49, 2.86, 2.86, 2.86, 2.84, 2.84, 2.84, 2.84, 3.49, 3.49, 2.86, 1.76, 1.23, 1.55, 1.7, 1.55, 1.73, 1.8, 1.6, 2.23, 2.48, 2.22, 1.76, 1.76, 2.23, 2.23, 2.23, 1.8, 1.6, 1.16, 1.2, 1.24, 2.12, 2.63, 3.53, 4.44, 5.24, 5.26, 5.24, 6.58, 6.14, 6.58, 7.06, 7.06, 6.79, 6.13, 4.47, 4.75, 4.75, 4.11, 5.43, 5.72, 7.64, 7.07, 7.2, 6.8, 6.8, 7.2, 5.46, 5.43, 4.74, 6.06, 7.06, 7.69, 8.67, 11.62, 14.57, 16.09, 15.65, 13.41, 10.52, 10.16, 10.28, 10.62, 10.25, 8.4, 7.21, 6.36, 7.63, 5.59, 4.93, 5.2, 5.69, 5.36, 5.06, 6.01, 6.64, 6.32, 6.65, 7.95, 8.18, 8.18, 4.11, 4.11, 4.11, 4.11, 4.11, 3.79, 3.49, 2.86, 2.86, 2.86, 2.86, 3.12, 2.84, 3.22, 3.49, 3.49, 2.86, 2.22, 1.8, 1.8, 1.58, 1.76, 1.76, 2.23, 2.23, 2.51, 1.8, 1.58, 1.76, 1.58, 1.8, 2.23, 2.23, 2.23, 1.8, 1.6, 1.84, 1.88, 2.15, 2.49, 3.07, 3.98, 4.44, 4.8, 5.24, 5.24, 6.58, 6.58, 7.06, 7.06, 5.75, 5.06, 3.68, 4.47, 4.47, 4.75, 5.06, 5.69, 7.21, 6.7, 5.82, 5.82, 5.75, 5.43, 5.43, 5.37, 5.37, 4.65, 5.3, 5.72, 6.71, 10.82, 13.99, 14.22, 6.51, 6.66, 6.67, 7.01, 7.15, 8.38, 9.6, 10.27, 9.74, 8.55, 7.21, 4.93, 4.4, 4.46, 5.72, 5.38, 5.37, 6.01, 7.31, 7.61, 7.59, 7.59, 8.63, 8.63, 4.11, 4.11, 4.11, 4.11, 4.11, 3.79, 3.49, 3.2, 2.86, 2.86, 2.86, 2.86, 3.12, 3.49, 3.49, 3.79, 3.2, 2.86, 2.22, 2.22, 2.22, 1.76, 2.23, 2.23, 2.51, 2.51, 1.8, 1.58, 1.76, 1.58, 1.8, 1.8, 2.23, 2.23, 1.8, 1.8, 1.84, 2.23, 2.21, 2.68, 3.39, 3.39, 4.3, 4.77, 4.8, 5.02, 6.58, 6.58, 6.58, 6.23, 4.74, 5.06, 4.74, 4.74, 4.74, 5.06, 4.01, 4.95, 5.69, 5.82, 5.21, 5.21, 4.81, 4.43, 5.06, 5.06, 4.65, 3.9, 3.79, 3.91, 5.46, 7.95, 17.9, 10.52, 3.58, 4.47, 7.12, 7.57, 6.67, 7.57, 8.71, 10.25, 10.75, 10.02, 7.71, 5.46, 5.09, 6.08, 6.06, 6.08, 5.72, 6.98, 7.61, 8.55, 8.18, 8.11, 8.4, 8.4, 4.11, 4.11, 4.11, 4.11, 4.07, 4.07, 4.07, 3.48, 2.86, 2.86, 2.86, 2.86, 2.86, 3.49, 3.49, 3.79, 3.49, 2.86, 2.86, 2.86, 2.6, 2.22, 2.23, 2.51, 2.51, 2.51, 1.8, 1.58, 1.76, 1.8, 1.8, 1.6, 1.8, 1.8, 2.23, 2.23, 2.51, 2.23, 2.79, 2.79, 3.2, 3.82, 4.3, 4.34, 4.77, 4.77, 6.58, 7.06, 7.06, 6.64, 6.13, 5.36, 5.01, 5.01, 3.76, 3.76, 3.35, 4.01, 5.06, 5.06, 4.43, 4.11, 4.43, 4.74, 4.74, 5.06, 4.65, 4.44, 4.03, 3.33, 4.01, 14.1, 20.86, 17.5, 11.64, 8.49, 9.39, 10.28, 10.28, 8.91, 8.46, 9.81, 10.28, 9.36, 6.94, 6.08, 6.39, 6.7, 6.7, 6.39, 5.77, 6.35, 8.55, 9.14, 8.4, 8.67, 8.25, 8.25, 4.11, 4.11, 4.65, 4.65, 4.65, 4.29, 4.07, 3.48, 3.48, 3.15, 3.15, 2.86, 2.86, 3.2, 3.49, 4.07, 4.07, 3.48, 2.86, 2.86, 2.86, 2.86, 2.86, 2.84, 2.79, 2.51, 1.8, 1.58, 1.58, 1.8, 1.8, 1.6, 1.6, 1.8, 1.8, 2.23, 2.51, 2.51, 3.14, 3.14, 3.35, 3.6, 4.11, 4.6, 4.6, 5.24, 5.78, 6.68, 7.07, 7.51, 6.51, 6.79, 5.2, 4.11, 3.49, 3.49, 3.49, 3.16, 3.16, 4.43, 4.74, 4.43, 3.79, 4.11, 4.74, 4.29, 3.79, 3.91, 4.26, 3.79, 6.28, 10.02, 16.6, 18.92, 17.66, 11.45, 6.55, 7.03, 9.8, 8.0, 7.85, 8.8, 7.92, 6.36, 6.39, 6.32, 7.06, 6.39, 6.39, 6.64, 7.35, 7.33, 8.18, 9.03, 8.93, 8.06, 7.98, 7.98, 4.65, 4.65, 4.65, 4.65, 4.65, 4.29, 4.07, 3.48, 3.48, 3.15, 3.15, 3.15, 3.48, 3.48, 3.48, 4.07, 4.07, 3.48, 3.15, 2.86, 2.86, 3.48, 3.16, 2.84, 2.53, 2.51, 1.8, 1.76, 1.58, 1.8, 1.8, 1.6, 1.13, 1.8, 1.8, 2.23, 2.51, 2.51, 2.84, 2.84, 3.72, 3.72, 4.27, 4.4, 5.09, 5.09, 6.14, 6.68, 7.58, 7.58, 7.13, 5.34, 5.64, 3.79, 2.6, 3.49, 4.11, 3.79, 3.76, 1.98, 4.65, 5.24, 4.81, 4.81, 4.11, 3.11, 3.2, 3.2, 4.65, 4.81, 5.75, 8.17, 11.75, 16.72, 19.08, 17.1, 9.34, 3.38, 3.22, 4.36, 5.06, 2.91, 2.8, 4.56, 6.23, 7.97, 7.68, 6.68, 6.39, 6.65, 7.33, 8.23, 9.05, 8.4, 7.73, 7.71, 7.76, 7.76, 4.65, 4.65, 4.65, 4.65, 4.65, 4.55, 4.55, 4.37, 3.48, 3.48, 3.15, 3.48, 3.48, 3.48, 4.07, 4.37, 4.0, 3.78, 2.86, 3.15, 3.48, 3.48, 3.43, 3.35, 2.79, 2.23, 1.8, 1.58, 1.8, 1.8, 1.8, 1.11, 1.23, 1.76, 1.76, 2.48, 2.23, 2.51, 2.51, 2.84, 2.84, 3.43, 4.0, 4.55, 5.31, 5.57, 6.16, 6.68, 7.15, 7.15, 5.81, 4.47, 3.53, 3.14, 3.48, 3.16, 4.11, 3.79, 1.74, 1.74, 3.16, 5.21, 4.65, 4.19, 4.47, 3.11, 3.11, 4.65, 5.43, 5.82, 6.51, 7.11, 9.33, 12.79, 15.75, 18.69, 15.74, 2.68, -1.52, 0.0, 0.0, 0.7, 2.82, 4.37, 6.28, 7.61, 8.65, 7.64, 7.68, 7.06, 7.85, 8.8, 9.6, 9.08, 8.67, 8.06, 8.24, 8.24, 4.65, 4.65, 4.65, 4.65, 4.93, 4.55, 4.55, 4.37, 4.0, 3.48, 3.48, 3.48, 3.48, 3.48, 4.07, 4.55, 4.17, 3.43, 3.16, 2.86, 3.48, 3.48, 4.0, 3.72, 2.79, 1.6, 1.8, 1.6, 2.23, 1.61, 1.13, 0.63, 1.08, 1.57, 2.22, 2.22, 2.48, 2.48, 2.23, 2.51, 2.84, 3.16, 3.48, 4.07, 4.93, 5.47, 5.81, 6.61, 6.71, 5.36, 3.98, 3.13, 3.39, 3.43, 2.86, 3.16, 4.46, 3.48, 2.3, 1.49, 2.23, 5.09, 5.59, 3.84, 2.98, 3.4, 4.01, 5.21, 5.75, 6.7, 6.98, 6.71, 7.15, 8.36, 11.09, 16.19, 20.05, 12.94, 0.6, -2.23, -0.0, 1.05, 2.77, 5.04, 7.31, 8.23, 9.19, 8.68, 9.27, 8.63, 8.0, 8.4, 10.01, 10.18, 10.1, 9.46, 9.15, 9.15, 4.29, 4.29, 4.65, 4.93, 4.93, 4.55, 4.55, 4.55, 4.0, 3.48, 3.48, 3.48, 3.48, 3.48, 4.07, 5.08, 4.8, 3.88, 2.84, 2.84, 3.16, 3.78, 4.0, 3.88, 2.84, 1.8, 1.84, 2.23, 2.21, 1.88, 0.59, 0.57, 1.08, 1.57, 2.22, 2.22, 2.22, 2.22, 2.48, 2.48, 2.86, 3.16, 3.16, 4.19, 4.81, 5.29, 5.47, 4.11, 2.63, 2.63, 2.24, 3.32, 4.0, 4.41, 4.07, 3.35, 4.09, 3.48, 2.41, 1.26, 2.12, 4.85, 4.85, 3.22, 2.3, 4.01, 4.74, 5.2, 5.09, 6.21, 7.11, 7.15, 7.15, 7.42, 9.7, 14.28, 17.36, 18.39, 14.21, 6.71, 1.2, 0.99, 2.84, 5.06, 7.61, 8.93, 8.55, 9.2, 10.01, 10.01, 9.33, 9.11, 10.37, 10.6, 10.84, 10.96, 10.08, 10.08, 4.55, 4.55, 4.93, 5.08, 5.08, 4.55, 4.55, 4.55, 4.0, 3.78, 3.48, 3.16, 3.48, 3.48, 4.29, 5.08, 5.08, 4.27, 2.84, 2.53, 2.84, 3.72, 3.7, 3.72, 2.84, 2.23, 1.84, 2.23, 2.53, 1.16, -0.0, 0.57, 1.23, 1.76, 2.22, 2.22, 2.22, 2.22, 2.22, 2.6, 2.86, 3.16, 2.84, 3.14, 3.43, 5.15, 6.21, 4.4, 3.6, 3.88, 4.55, 5.21, 4.71, 4.71, 4.65, 4.0, 3.6, 3.07, 1.6, 2.6, 1.79, 4.02, 3.74, 2.84, 3.07, 4.19, 4.46, 5.01, 4.22, 4.47, 5.81, 7.11, 8.01, 8.46, 9.75, 11.87, 13.84, 14.67, 17.04, 15.84, 7.45, 2.49, 2.84, 5.59, 7.9, 10.53, 10.38, 10.6, 11.28, 11.89, 11.42, 11.52, 11.99, 11.4, 11.45, 11.45, 11.09, 11.09, 4.55, 4.55, 4.93, 5.08, 5.08, 4.69, 4.55, 4.55, 4.0, 4.0, 3.78, 3.78, 3.43, 3.48, 4.29, 5.08, 5.31, 4.8, 3.72, 3.14, 2.79, 3.6, 3.6, 3.6, 2.84, 2.84, 2.23, 1.61, 1.84, 1.11, 0.57, 0.57, 1.11, 1.58, 1.76, 2.22, 2.22, 2.22, 2.44, 2.86, 2.86, 3.16, 2.84, 3.14, 3.07, 4.57, 6.51, 6.3, 5.81, 5.6, 5.47, 5.08, 4.55, 4.65, 4.29, 4.37, 3.88, 3.07, 2.4, 2.97, 3.58, 4.02, 4.15, 3.83, 3.83, 4.15, 3.83, 4.29, 4.29, 3.13, 4.02, 6.02, 8.4, 10.45, 11.15, 11.18, 11.06, 11.62, 13.67, 16.96, 13.88, 8.06, 4.69, 6.56, 9.01, 10.66, 10.81, 11.89, 11.53, 11.09, 11.6, 12.07, 11.62, 12.07, 12.44, 11.99, 11.54, 11.54, 4.55, 4.55, 5.08, 5.08, 5.08, 5.31, 4.9, 4.8, 4.0, 4.0, 3.78, 3.43, 3.43, 3.78, 4.37, 5.08, 5.81, 5.31, 4.27, 3.72, 3.35, 3.6, 3.2, 3.07, 2.53, 2.84, 2.23, 1.13, 0.88, 0.57, 0.57, 1.11, 1.11, 1.58, 1.76, 1.76, 1.76, 1.76, 2.22, 2.86, 2.86, 3.16, 2.84, 3.14, 3.82, 4.44, 5.78, 6.6, 6.47, 5.57, 4.9, 4.4, 3.88, 3.64, 4.0, 4.55, 4.27, 3.6, 2.91, 2.63, 3.58, 4.38, 4.57, 3.74, 4.38, 3.95, 3.13, 3.13, 5.26, 5.26, 4.38, 4.66, 6.79, 11.13, 14.67, 13.39, 10.7, 10.28, 12.94, 15.06, 15.22, 11.3, 9.18, 8.0, 9.91, 10.96, 11.49, 10.71, 11.62, 11.18, 11.18, 11.6, 11.6, 12.05, 12.52, 12.07, 11.6, 11.6, 4.55, 4.55, 5.08, 5.08, 5.31, 5.31, 4.9, 4.8, 4.17, 4.0, 3.43, 3.43, 3.43, 3.43, 4.55, 5.31, 5.81, 5.57, 4.9, 4.27, 3.72, 3.6, 3.6, 3.07, 2.53, 2.51, 2.23, 1.13, 0.59, 0.88, 0.57, 1.11, 1.11, 1.76, 1.76, 1.76, 1.76, 1.76, 2.22, 2.86, 3.15, 2.86, 3.16, 3.72, 4.11, 4.77, 5.34, 5.78, 5.7, 5.24, 4.3, 3.6, 3.35, 3.72, 3.43, 4.27, 4.27, 4.11, 3.39, 3.07, 3.07, 4.15, 5.64, 3.95, 3.95, 3.95, 4.02, 4.47, 4.92, 5.7, 5.16, 4.41, 5.31, 9.83, 16.07, 16.02, 11.6, 10.25, 11.6, 14.69, 14.93, 12.49, 10.8, 10.98, 9.77, 10.72, 11.18, 10.73, 12.05, 10.25, 10.62, 10.52, 11.42, 11.45, 11.99, 12.07, 11.18, 11.18, 4.8, 4.8, 4.9, 5.31, 5.31, 5.31, 4.9, 4.8, 4.4, 4.0, 3.43, 3.43, 3.43, 3.43, 4.55, 5.31, 5.57, 5.57, 5.09, 4.4, 3.88, 3.7, 3.82, 3.07, 2.53, 2.23, 1.84, 1.13, 0.57, 0.57, 0.57, 1.11, 1.23, 1.76, 1.57, 1.57, 1.57, 1.76, 2.22, 2.86, 3.15, 3.15, 3.48, 3.78, 4.27, 4.6, 5.33, 5.33, 4.44, 3.98, 3.39, 3.6, 3.35, 3.43, 3.43, 3.88, 4.27, 4.27, 3.6, 3.39, 4.24, 4.66, 5.2, 4.8, 3.74, 3.74, 3.74, 4.24, 4.34, 5.7, 5.86, 5.7, 5.81, 8.91, 13.41, 15.91, 13.96, 12.3, 13.39, 15.2, 15.18, 12.89, 11.09, 11.15, 11.62, 9.83, 10.71, 10.23, 11.09, 9.28, 7.28, 8.82, 10.32, 11.71, 11.28, 11.54, 11.09, 11.09, 4.8, 4.8, 4.9, 5.31, 5.31, 5.31, 4.9, 4.9, 4.4, 4.0, 3.64, 3.43, 3.43, 3.64, 4.4, 5.51, 5.57, 5.57, 5.09, 5.02, 4.6, 4.11, 3.7, 2.79, 2.23, 1.84, 1.13, 0.59, 0.57, 0.57, 0.57, 0.57, 1.08, 1.57, 1.57, 1.57, 1.76, 2.22, 2.22, 2.86, 2.86, 2.86, 3.48, 4.0, 4.4, 4.6, 4.77, 4.02, 3.58, 3.13, 3.39, 3.35, 3.43, 3.43, 3.43, 3.43, 4.27, 4.27, 3.88, 3.32, 2.63, 4.24, 4.66, 4.8, 5.2, 5.2, 3.74, 4.15, 5.31, 6.07, 6.07, 6.61, 7.6, 8.9, 10.73, 13.05, 14.42, 13.99, 15.01, 14.3, 12.96, 11.62, 10.28, 9.83, 11.62, 9.39, 9.39, 9.81, 8.01, 7.12, 5.64, 4.73, 8.19, 10.05, 10.52, 10.52, 10.98, 10.98, 4.8, 4.8, 4.9, 5.31, 5.31, 5.51, 5.09, 4.9, 4.8, 4.27, 4.0, 3.43, 3.72, 3.88, 4.4, 5.09, 5.57, 5.7, 5.24, 4.66, 4.6, 4.11, 3.6, 2.84, 2.23, 1.8, 1.8, 1.13, 0.57, 0.57, 0.57, 0.63, 1.08, 1.08, 1.57, 1.76, 2.22, 2.22, 2.48, 2.22, 2.44, 2.86, 3.2, 3.48, 4.0, 4.4, 3.87, 3.13, 2.68, 3.07, 3.35, 3.79, 3.49, 3.79, 3.48, 3.78, 4.0, 4.27, 4.27, 3.39, 2.91, 2.4, 4.24, 3.47, 4.15, 6.14, 3.95, 4.85, 5.31, 5.77, 6.61, 7.11, 9.32, 8.94, 10.28, 10.49, 12.56, 14.83, 16.54, 15.39, 12.05, 8.49, 7.6, 8.05, 9.36, 10.26, 9.83, 7.6, 6.26, 5.81, 4.92, 4.92, 8.05, 9.39, 10.73, 11.18, 10.19, 10.19, 4.8, 4.8, 4.9, 5.51, 5.51, 5.51, 5.09, 4.9, 4.8, 4.4, 4.27, 3.88, 3.88, 3.88, 4.6, 5.09, 5.57, 5.7, 5.24, 4.77, 4.34, 4.11, 3.35, 2.23, 1.8, 1.8, 1.8, 1.27, 0.57, 0.57, 0.57, 0.63, 1.08, 1.08, 1.76, 1.76, 2.22, 2.48, 2.22, 2.22, 2.22, 2.44, 2.86, 4.11, 3.73, 4.0, 3.7, 3.09, 3.09, 3.6, 4.07, 4.11, 4.11, 3.79, 4.07, 4.0, 4.0, 4.0, 4.11, 3.6, 2.91, 2.6, 4.47, 2.68, 3.95, 6.14, 4.41, 4.92, 5.36, 5.81, 6.21, 7.45, 10.04, 10.47, 8.49, 8.49, 9.7, 13.05, 17.0, 17.17, 14.13, 10.37, 8.01, 7.6, 8.46, 10.19, 10.65, 8.91, 7.6, 7.15, 6.71, 6.71, 7.6, 9.83, 10.73, 11.18, 11.62, 11.62, 5.02, 5.02, 5.09, 5.09, 5.51, 5.51, 5.09, 5.09, 4.8, 4.4, 4.27, 3.88, 3.88, 4.6, 4.6, 5.09, 5.57, 5.7, 5.24, 4.77, 4.3, 3.7, 3.43, 2.22, 2.48, 2.23, 1.8, 1.27, 1.11, 0.57, 0.57, 0.55, 0.63, 1.23, 1.58, 2.48, 2.48, 2.22, 2.22, 2.22, 2.22, 2.22, 2.48, 3.63, 4.11, 4.29, 3.88, 3.6, 3.88, 4.07, 4.37, 4.11, 4.07, 4.07, 4.0, 4.0, 4.0, 4.27, 4.52, 3.7, 3.32, 2.63, 4.47, 4.02, 4.47, 5.81, 6.26, 4.92, 5.31, 5.77, 6.07, 6.79, 9.21, 12.3, 10.45, 7.6, 6.98, 11.18, 14.69, 15.69, 14.11, 12.5, 10.52, 8.91, 9.81, 11.99, 12.44, 10.7, 8.94, 8.05, 7.6, 7.6, 7.6, 10.28, 10.73, 11.18, 11.62, 11.62, 5.02, 5.02, 5.09, 5.09, 5.57, 5.57, 5.09, 5.09, 4.9, 4.4, 4.27, 4.27, 4.27, 4.6, 4.6, 5.09, 5.7, 5.7, 4.89, 4.34, 4.3, 3.72, 2.86, 2.86, 2.6, 2.48, 2.23, 1.58, 1.11, 0.55, 0.55, 0.55, 0.57, 1.11, 1.8, 2.23, 2.22, 2.22, 2.22, 1.76, 2.22, 2.23, 2.23, 2.51, 4.11, 4.65, 4.55, 4.0, 4.07, 4.65, 4.65, 4.07, 4.37, 4.0, 3.64, 3.88, 3.88, 4.6, 4.6, 3.87, 3.39, 3.07, 2.63, 4.92, 5.36, 5.81, 4.85, 5.31, 6.21, 6.07, 5.75, 6.0, 7.81, 11.21, 12.21, 7.71, 6.51, 7.71, 10.73, 12.66, 13.42, 14.35, 13.88, 11.99, 11.18, 12.07, 13.41, 12.07, 9.83, 8.94, 8.05, 7.6, 8.05, 10.25, 10.7, 10.7, 10.7, 11.62, 5.09, 5.09, 5.09, 5.09, 5.7, 5.57, 5.09, 5.09, 4.9, 4.4, 4.4, 4.27, 4.6, 4.6, 5.09, 5.51, 5.7, 5.78, 4.89, 4.34, 4.11, 3.43, 2.86, 2.86, 2.86, 2.86, 2.22, 1.76, 1.08, 0.55, 0.55, 0.55, 1.11, 1.58, 1.8, 1.8, 1.76, 2.22, 2.22, 2.22, 2.48, 2.23, 2.23, 2.53, 2.79, 4.84, 4.93, 4.55, 4.37, 4.37, 4.37, 4.0, 4.0, 3.88, 3.72, 3.72, 4.11, 4.52, 4.6, 4.3, 3.39, 2.63, 4.02, 4.47, 5.2, 5.7, 5.31, 6.61, 5.59, 5.43, 5.82, 5.82, 6.36, 7.81, 11.2, 12.17, 8.4, 5.81, 7.15, 10.52, 13.07, 15.54, 15.96, 14.15, 11.62, 11.15, 11.18, 10.73, 9.83, 8.91, 8.46, 8.01, 7.92, 10.16, 10.6, 10.16, 10.16, 10.16, 5.24, 5.24, 5.24, 5.26, 5.7, 5.7, 5.09, 5.09, 5.09, 4.8, 4.4, 4.6, 4.6, 4.6, 5.09, 5.57, 6.16, 6.23, 5.34, 4.34, 3.88, 3.48, 2.86, 2.86, 2.86, 2.86, 2.86, 2.2, 1.19, 0.61, 0.55, 1.08, 1.11, 1.8, 1.8, 1.58, 1.76, 1.76, 2.22, 2.22, 2.23, 2.23, 2.23, 2.53, 3.07, 3.7, 4.4, 4.0, 4.0, 4.0, 4.0, 4.0, 4.0, 3.88, 3.72, 3.35, 4.11, 4.11, 4.34, 4.3, 3.53, 3.07, 3.13, 4.92, 5.2, 5.64, 5.81, 5.81, 4.46, 4.46, 5.21, 5.2, 5.7, 6.51, 8.37, 11.8, 13.04, 11.09, 8.0, 9.6, 12.79, 16.24, 17.88, 16.6, 12.95, 10.26, 8.82, 8.82, 8.82, 8.38, 8.36, 8.19, 7.76, 8.63, 9.83, 9.54, 9.54, 9.54, 5.24, 5.24, 5.24, 5.26, 5.7, 5.7, 5.09, 5.09, 5.09, 5.02, 4.6, 4.6, 4.6, 4.6, 5.09, 5.57, 6.16, 6.23, 5.34, 4.6, 4.27, 3.48, 3.2, 2.86, 2.86, 3.15, 2.86, 1.73, 1.19, 1.19, 1.08, 1.23, 1.58, 1.8, 1.58, 1.76, 1.76, 1.76, 2.22, 2.22, 2.23, 2.51, 2.84, 3.14, 2.79, 3.6, 3.88, 4.27, 4.27, 4.27, 4.27, 4.27, 3.88, 3.72, 3.72, 3.6, 3.7, 4.3, 4.34, 4.34, 3.98, 3.58, 3.13, 4.92, 4.77, 5.2, 5.6, 5.75, 4.84, 5.21, 5.2, 4.66, 5.31, 6.21, 7.89, 9.54, 12.29, 13.04, 10.9, 10.28, 13.04, 15.99, 18.51, 18.31, 14.93, 10.26, 6.79, 6.79, 7.28, 7.76, 7.56, 7.98, 7.47, 9.08, 9.08, 8.82, 8.82, 8.82, 5.24, 5.24, 5.24, 5.26, 5.26, 5.26, 5.24, 5.09, 5.09, 5.02, 4.6, 4.6, 4.6, 4.6, 5.09, 5.7, 6.23, 6.23, 5.78, 4.6, 4.0, 3.48, 3.15, 2.86, 2.86, 2.86, 2.22, 1.73, 1.73, 1.08, 1.23, 1.58, 1.8, 1.8, 1.58, 1.76, 1.76, 1.76, 1.76, 2.22, 2.48, 2.58, 2.84, 2.84, 3.14, 3.35, 3.72, 3.88, 3.88, 4.27, 4.27, 3.88, 3.88, 3.72, 3.72, 3.6, 3.7, 4.3, 4.34, 4.34, 3.98, 3.58, 3.13, 3.13, 4.77, 5.2, 5.2, 4.66, 5.2, 4.8, 4.34, 4.85, 5.31, 6.21, 7.89, 8.63, 10.43, 11.75, 10.9, 10.29, 12.51, 15.7, 18.0, 18.26, 16.47, 12.88, 8.82, 4.93, 5.6, 7.06, 10.38, 6.9, 7.67, 8.67, 8.24, 7.6, 7.6, 7.6, 5.24, 5.24, 5.33, 5.26, 5.26, 5.26, 5.24, 5.09, 5.09, 5.02, 4.6, 4.6, 4.6, 5.24, 5.26, 5.7, 6.23, 5.79, 5.78, 5.09, 3.64, 3.16, 2.86, 3.16, 2.84, 2.84, 2.23, 1.76, 1.76, 1.58, 1.58, 1.8, 1.8, 2.23, 2.22, 1.76, 1.58, 1.58, 1.76, 2.23, 2.23, 2.86, 3.16, 3.16, 3.43, 3.72, 3.72, 3.72, 3.88, 3.88, 3.88, 3.88, 3.72, 3.72, 3.35, 3.6, 3.7, 4.3, 4.34, 4.44, 3.98, 3.54, 3.58, 3.13, 3.09, 4.77, 5.2, 4.41, 4.85, 3.95, 4.92, 4.92, 5.75, 6.65, 7.42, 8.14, 9.33, 10.43, 10.23, 9.3, 10.91, 15.12, 17.66, 17.73, 18.78, 15.96, 9.83, 5.44, 5.05, 8.8, 9.4, 6.7, 6.44, 7.06, 7.06, 6.44, 6.44, 6.44, 5.33, 5.33, 5.34, 5.34, 5.34, 5.26, 5.24, 5.09, 5.09, 5.09, 4.6, 4.6, 4.77, 5.24, 5.7, 5.78, 5.79, 5.78, 5.26, 4.66, 3.43, 3.43, 3.43, 3.43, 2.84, 2.51, 1.6, 1.8, 1.8, 1.8, 1.8, 1.8, 2.23, 2.23, 2.48, 2.48, 1.8, 1.8, 1.8, 2.23, 2.23, 2.86, 2.86, 3.43, 3.43, 3.43, 3.43, 3.43, 3.72, 3.72, 3.72, 3.72, 3.72, 3.35, 3.6, 3.6, 3.7, 4.3, 4.34, 4.44, 3.98, 3.98, 3.58, 3.13, 3.07, 4.92, 5.36, 5.81, 5.81, 4.41, 4.02, 5.31, 5.77, 6.51, 6.98, 7.71, 8.63, 9.75, 9.2, 8.3, 9.66, 13.51, 16.72, 18.33, 20.14, 15.96, 5.77, 1.2, 2.23, 5.16, 5.16, 3.74, 3.45, 3.48, 4.11, 4.36, 4.36, 4.36, 5.34, 5.34, 5.34, 5.34, 5.34, 5.26, 5.24, 5.24, 5.09, 4.66, 4.66, 4.8, 4.8, 5.24, 5.78, 5.78, 5.81, 5.78, 5.24, 4.6, 3.88, 3.35, 3.43, 3.72, 3.14, 2.23, 1.84, 1.84, 1.84, 1.84, 1.84, 1.8, 2.23, 2.23, 2.48, 2.48, 2.23, 1.8, 1.8, 2.23, 2.23, 2.86, 2.86, 3.43, 3.43, 3.43, 3.43, 3.43, 3.72, 3.72, 3.72, 3.72, 3.72, 3.35, 3.6, 3.7, 4.3, 4.3, 4.3, 4.43, 3.98, 3.98, 3.53, 2.63, 2.6, 4.24, 5.2, 5.64, 6.14, 5.59, 6.02, 6.02, 6.98, 6.98, 7.42, 7.45, 7.71, 8.4, 8.24, 7.69, 8.03, 10.91, 14.76, 17.87, 22.31, 16.81, 1.7, -1.7, 3.45, 5.44, 4.41, 3.58, 3.53, 2.91, 2.5, 1.84, 1.84, 1.84, 5.34, 5.34, 5.34, 5.34, 5.34, 5.24, 5.24, 5.24, 5.24, 4.8, 4.8, 5.24, 5.24, 5.33, 5.78, 5.81, 5.81, 5.36, 5.33, 4.77, 4.11, 3.35, 3.35, 3.35, 2.84, 2.51, 1.84, 1.84, 1.84, 1.84, 1.8, 1.8, 1.8, 2.23, 2.48, 2.48, 2.48, 2.23, 2.23, 2.23, 2.23, 2.84, 3.16, 3.43, 3.43, 3.43, 3.43, 3.43, 3.72, 3.72, 3.72, 3.72, 3.72, 3.72, 3.6, 3.7, 4.3, 4.3, 4.3, 4.3, 3.87, 3.98, 3.53, 2.63, 2.17, 3.47, 4.15, 4.8, 5.2, 5.59, 5.59, 5.75, 6.21, 6.55, 6.98, 6.98, 6.79, 7.35, 7.67, 7.69, 7.06, 8.03, 10.9, 15.09, 22.48, 19.46, -3.07, -0.0, 4.14, 7.61, 8.49, 6.36, 3.97, 3.51, 2.68, 1.7, 1.7, 1.7, 5.34, 5.34, 5.34, 5.34, 5.34, 5.33, 5.24, 5.24, 4.8, 4.8, 4.8, 5.24, 5.33, 5.34, 5.78, 5.81, 5.81, 5.36, 4.89, 4.34, 4.11, 3.6, 3.6, 3.35, 2.84, 2.84, 2.23, 2.23, 2.23, 2.23, 2.23, 2.48, 2.22, 2.48, 2.48, 2.48, 2.48, 2.48, 2.23, 2.23, 2.51, 2.84, 2.84, 3.43, 3.43, 3.43, 3.43, 3.43, 3.72, 3.72, 3.72, 3.72, 3.72, 3.6, 3.6, 3.7, 4.11, 4.11, 4.3, 4.3, 3.87, 3.87, 3.53, 3.07, 2.17, 2.97, 3.6, 4.22, 4.8, 4.8, 5.59, 5.59, 5.31, 6.65, 7.11, 6.98, 6.94, 6.64, 7.07, 7.06, 7.07, 6.44, 8.06, 13.43, 22.64, 7.46, -1.41, -0.0, 3.97, 7.95, 9.7, 8.49, 6.64, 4.84, 3.45, 3.07, 3.07, 3.07, 5.34, 5.36, 5.34, 5.34, 5.34, 5.33, 5.24, 5.24, 4.8, 4.8, 4.8, 5.33, 5.34, 5.78, 5.81, 5.81, 5.81, 5.36, 4.89, 4.34, 4.3, 3.6, 3.6, 3.35, 3.43, 2.86, 2.86, 2.86, 2.86, 2.86, 2.44, 2.22, 2.22, 2.22, 2.48, 2.86, 2.86, 2.86, 2.23, 2.23, 2.51, 2.84, 2.84, 3.43, 3.43, 3.43, 3.43, 3.43, 3.72, 3.72, 3.72, 3.72, 3.72, 3.6, 3.6, 3.6, 3.6, 3.7, 4.3, 4.3, 3.87, 3.87, 3.39, 3.07, 2.6, 1.86, 2.97, 3.2, 3.58, 4.22, 4.19, 4.8, 4.8, 4.66, 6.02, 6.28, 6.07, 6.44, 7.03, 7.03, 6.44, 6.4, 6.94, 11.66, 24.29, 9.86, -0.0, 0.7, 3.49, 6.25, 8.11, 8.55, 7.06, 6.06, 5.09, 4.09, 4.09, 4.09, 5.36, 5.36, 5.34, 5.34, 5.33, 5.33, 5.33, 5.24, 4.8, 4.89, 5.33, 5.33, 5.78, 5.81, 5.81, 5.81, 5.81, 5.36, 4.89, 4.77, 4.3, 3.82, 3.35, 3.43, 3.48, 3.49, 3.49, 3.49, 3.22, 3.12, 2.86, 2.86, 2.86, 2.22, 2.48, 2.86, 2.86, 2.86, 2.86, 2.58, 2.51, 2.84, 2.84, 2.84, 3.43, 3.43, 3.43, 3.43, 3.72, 3.72, 3.72, 3.72, 3.72, 3.6, 3.6, 3.6, 3.82, 3.82, 3.82, 3.87, 3.82, 3.82, 3.39, 2.91, 2.4, 1.86, 1.9, 1.9, 2.6, 3.2, 3.58, 4.22, 4.8, 4.46, 4.8, 5.21, 5.82, 6.07, 6.07, 6.8, 6.4, 6.4, 7.21, 21.4, 23.39, 9.86, -0.0, 0.57, 2.5, 4.66, 6.35, 7.61, 6.68, 7.06, 6.08, 5.69, 5.69, 5.69, 5.36, 5.36, 5.36, 5.34, 5.33, 5.33, 5.33, 5.33, 4.89, 4.89, 5.33, 5.36, 5.81, 5.81, 5.81, 5.81, 5.36, 5.36, 5.33, 4.8, 4.34, 4.11, 4.0, 4.07, 3.79, 3.79, 4.11, 3.78, 3.49, 3.49, 3.49, 2.86, 2.86, 2.6, 2.86, 2.86, 2.86, 2.86, 2.86, 2.86, 2.84, 2.84, 2.84, 2.84, 3.35, 3.72, 3.72, 3.72, 3.72, 3.72, 3.72, 3.72, 3.6, 3.6, 3.6, 3.2, 3.39, 3.39, 3.82, 3.82, 3.39, 3.53, 3.07, 2.6, 1.86, 1.26, 0.95, 0.95, 1.6, 2.0, 2.54, 3.95, 4.8, 4.84, 4.19, 4.81, 5.46, 5.82, 6.07, 6.07, 6.0, 6.94, 12.3, 19.73, 22.89, 9.68, -0.8, -0.6, 1.2, 3.43, 5.69, 7.61, 7.32, 7.28, 7.28, 6.64, 6.64, 6.64, 5.36, 5.36, 5.36, 5.36, 5.33, 5.33, 5.33, 5.33, 4.89, 4.89, 5.36, 5.36, 5.81, 5.81, 5.81, 5.81, 5.36, 5.36, 5.33, 4.89, 4.77, 4.6, 4.4, 4.07, 3.79, 4.11, 4.11, 4.11, 3.49, 3.49, 3.49, 3.2, 2.86, 3.15, 2.86, 2.86, 2.86, 2.86, 2.86, 2.86, 3.16, 2.84, 2.84, 3.14, 3.35, 3.72, 3.72, 3.72, 3.72, 3.72, 3.72, 3.72, 3.6, 3.6, 3.6, 3.39, 3.39, 3.39, 3.39, 3.39, 3.53, 3.53, 3.07, 2.6, 1.7, 1.2, 0.6, 0.6, 0.95, 0.89, 2.68, 3.95, 4.66, 5.2, 5.2, 4.8, 4.81, 5.46, 6.07, 6.44, 6.07, 7.03, 11.37, 17.22, 22.88, 12.81, -0.0, -1.58, 0.61, 3.38, 6.35, 7.92, 7.67, 8.0, 7.6, 6.8, 6.8, 6.8, 5.36, 5.36, 5.36, 5.36, 5.36, 5.33, 5.33, 5.33, 5.33, 5.33, 5.36, 5.36, 5.81, 6.26, 5.81, 5.81, 5.36, 4.92, 4.92, 4.89, 4.8, 4.6, 4.8, 4.29, 4.65, 4.41, 4.11, 3.79, 3.79, 3.49, 3.49, 3.2, 3.2, 3.15, 2.86, 2.86, 2.86, 2.86, 2.86, 3.16, 3.16, 2.84, 2.84, 3.35, 3.35, 3.72, 3.72, 3.72, 3.72, 3.72, 3.72, 3.72, 3.6, 3.6, 3.6, 3.39, 3.39, 3.39, 3.39, 3.39, 3.53, 3.53, 3.07, 2.17, 1.7, 1.2, 0.63, -0.0, 0.45, 0.89, 2.24, 3.13, 4.38, 5.09, 5.2, 5.2, 4.8, 5.34, 5.82, 6.07, 6.07, 7.67, 10.15, 14.68, 21.8, 19.25, 6.8, -0.0, 1.33, 4.11, 5.95, 7.85, 8.4, 8.14, 7.35, 7.6, 7.6, 7.6, 5.36, 5.36, 5.36, 5.36, 5.36, 5.36, 5.33, 5.33, 5.33, 5.36, 5.36, 5.81, 5.81, 6.26, 6.26, 5.81, 5.36, 5.36, 4.92, 4.92, 4.89, 5.09, 4.8, 4.65, 4.65, 4.65, 4.65, 4.11, 3.79, 3.79, 3.49, 3.79, 3.48, 3.48, 3.15, 2.86, 2.86, 2.86, 3.16, 3.16, 3.16, 3.43, 3.43, 3.72, 3.72, 3.72, 3.72, 3.72, 3.72, 3.72, 3.72, 3.6, 3.6, 3.6, 3.6, 3.82, 3.39, 3.39, 3.39, 3.39, 3.53, 3.53, 3.07, 2.24, 1.79, 0.89, 0.45, 0.45, 0.45, 1.34, 1.79, 2.68, 3.04, 3.74, 4.22, 4.46, 4.8, 4.8, 5.75, 6.0, 6.44, 8.0, 9.33, 13.05, 19.08, 21.12, 13.33, 6.35, 4.11, 5.09, 6.13, 7.2, 8.25, 8.0, 7.2, 8.0, 8.0, 8.0, 5.81, 5.81, 5.36, 5.36, 5.36, 5.36, 5.36, 5.36, 5.36, 5.36, 5.36, 5.81, 5.81, 6.23, 6.23, 5.81, 5.36, 5.36, 5.36, 5.36, 5.24, 5.09, 4.9, 4.93, 4.65, 4.65, 4.65, 4.65, 3.79, 3.79, 4.07, 3.79, 3.48, 3.48, 3.48, 3.16, 2.86, 2.86, 3.16, 3.16, 3.43, 3.43, 3.72, 3.72, 3.72, 3.72, 3.72, 3.72, 3.72, 3.72, 4.11, 3.7, 3.7, 3.6, 3.82, 3.82, 3.82, 3.39, 3.39, 3.53, 3.53, 3.53, 3.07, 2.68, 1.79, 1.34, 0.45, 0.45, 0.45, 1.34, 1.34, 2.68, 3.04, 3.2, 3.22, 4.22, 4.8, 4.22, 5.2, 6.4, 6.4, 7.89, 9.54, 12.42, 17.15, 19.31, 14.71, 8.58, 6.96, 6.9, 6.64, 7.06, 7.33, 7.6, 7.6, 8.0, 8.0, 8.0, 5.81, 5.81, 5.36, 5.36, 5.36, 5.36, 5.36, 5.36, 5.36, 5.36, 5.81, 5.81, 6.23, 6.23, 6.23, 5.78, 5.81, 5.81, 5.36, 5.34, 5.26, 5.51, 5.31, 5.08, 4.84, 4.65, 4.65, 4.65, 4.41, 4.07, 4.07, 4.07, 3.48, 3.48, 3.48, 3.48, 3.16, 3.43, 3.43, 3.43, 3.43, 3.72, 3.72, 3.72, 3.72, 3.72, 3.72, 3.72, 3.72, 4.11, 4.11, 3.7, 3.7, 3.87, 3.82, 3.82, 3.82, 3.39, 3.39, 3.53, 3.53, 3.53, 3.07, 2.68, 1.79, 1.34, 0.89, 0.89, 0.0, 0.95, 1.79, 2.24, 2.54, 2.97, 3.04, 4.15, 4.22, 4.15, 5.34, 6.4, 6.7, 7.71, 9.72, 11.96, 15.01, 16.33, 13.35, 9.52, 8.18, 8.4, 7.47, 6.36, 6.54, 6.94, 7.2, 8.0, 8.0, 8.0, 5.81, 5.81, 5.36, 5.36, 5.36, 5.36, 5.36, 5.36, 5.36, 5.36, 5.81, 5.81, 6.23, 6.23, 6.23, 6.23, 5.78, 5.81, 5.81, 5.78, 5.7, 5.57, 5.4, 5.4, 5.08, 4.84, 4.65, 4.65, 4.65, 4.65, 4.07, 4.07, 3.48, 3.48, 3.48, 3.78, 3.43, 3.43, 3.43, 3.43, 3.72, 3.72, 3.88, 3.88, 3.88, 3.88, 3.88, 3.88, 4.11, 4.11, 4.11, 3.7, 3.7, 3.87, 3.87, 3.82, 3.82, 3.39, 3.53, 3.53, 3.53, 3.53, 3.09, 2.68, 2.24, 1.34, 0.89, 0.63, 0.63, 0.63, 1.34, 1.79, 2.68, 3.82, 2.54, 3.04, 4.15, 4.24, 5.59, 5.16, 6.51, 7.89, 9.26, 11.4, 13.96, 14.92, 12.79, 10.28, 9.14, 9.05, 7.46, 6.54, 5.86, 6.36, 7.06, 7.73, 7.73, 7.73, 5.81, 5.81, 5.36, 5.36, 5.36, 5.36, 5.36, 5.36, 5.36, 5.36, 5.81, 6.26, 6.23, 6.23, 6.23, 6.23, 6.23, 6.26, 6.26, 6.23, 6.16, 6.04, 5.81, 5.81, 5.47, 5.08, 4.84, 4.65, 4.65, 4.65, 4.29, 4.07, 4.0, 3.78, 3.78, 3.43, 3.43, 3.43, 3.43, 3.72, 3.72, 3.88, 3.88, 3.88, 3.88, 3.88, 3.88, 4.11, 4.11, 4.11, 4.11, 4.11, 3.87, 3.87, 3.87, 3.87, 3.82, 3.82, 3.53, 3.53, 3.53, 3.53, 3.13, 2.68, 2.24, 1.79, 1.34, 0.63, 0.63, 0.0, 0.63, 0.89, 1.79, 3.58, 2.12, 2.12, 3.51, 4.85, 5.16, 5.31, 5.75, 7.45, 8.8, 10.49, 12.37, 13.23, 12.47, 10.9, 9.92, 9.67, 9.27, 7.6, 5.86, 5.16, 5.64, 6.79, 6.79, 6.79, 5.81, 5.81, 5.36, 5.36, 5.36, 5.36, 5.36, 5.36, 5.36, 5.36, 5.81, 6.26, 6.23, 6.23, 6.23, 6.23, 6.23, 6.26, 6.26, 6.23, 6.16, 6.04, 5.81, 5.81, 5.47, 5.08, 4.84, 4.65, 4.65, 4.65, 4.29, 4.07, 4.0, 3.78, 3.78, 3.43, 3.43, 3.43, 3.43, 3.72, 3.72, 3.88, 3.88, 3.88, 3.88, 3.88, 3.88, 4.11, 4.11, 4.11, 4.11, 4.11, 3.87, 3.87, 3.87, 3.87, 3.82, 3.82, 3.53, 3.53, 3.53, 3.53, 3.13, 2.68, 2.24, 1.79, 1.34, 0.63, 0.63, 0.0, 0.63, 0.89, 1.79, 3.58, 2.12, 2.12, 4.38, 4.85, 5.16, 5.31, 5.75, 6.66, 7.89, 9.54, 10.95, 11.75, 11.88, 10.91, 10.28, 10.28, 10.9, 9.9, 7.6, 4.66, 3.51, 5.16, 5.16, 5.16]}, {"header": {"dx": 0.06612293990616946, "dy": 0.0552356325346848, "nx": 98, "ny": 59, "la1": 35.046912555036876, "la2": 31.78801023549047, "lo1": -121.43107172385933, "lo2": -114.95102361305473, "refTime": "2026041102", "parameterCategory": 1, "parameterNumber": 3}, "data": [7.87, 7.69, 7.26, 7.09, 7.51, 7.51, 8.0, 7.81, 8.22, 7.6, 7.6, 7.08, 7.44, 6.06, 5.37, 4.84, 6.02, 6.51, 6.61, 6.79, 7.21, 6.8, 6.44, 6.7, 8.05, 8.67, 9.05, 9.27, 9.27, 10.23, 10.48, 10.8, 9.49, 5.82, 2.23, 0.0, -2.12, -4.15, -1.79, 1.2, 5.31, 6.2, 5.26, 6.36, 7.2, 7.69, 8.03, 8.3, 8.65, 9.0, 8.93, 8.93, 8.53, 8.46, 8.01, 6.87, 6.33, 6.45, 5.63, 5.63, 5.95, 6.2, 6.87, 7.01, 6.43, 6.33, 6.71, 7.52, 8.12, 7.9, 7.93, 7.13, 5.48, 4.58, 3.91, 4.81, 3.87, 2.82, 1.54, 0.74, 0.0, 0.0, 0.0, -0.77, -2.28, -2.11, 1.58, 6.06, 7.07, 7.06, 6.32, 7.02, 6.95, 7.02, 6.39, 6.08, 6.64, 7.2, 7.26, 7.26, 7.09, 7.01, 7.26, 7.69, 7.58, 8.0, 8.22, 8.0, 8.22, 8.95, 7.82, 6.7, 7.76, 8.22, 6.65, 7.06, 6.61, 6.51, 7.74, 7.4, 7.81, 7.2, 7.03, 8.0, 8.05, 8.95, 9.49, 10.01, 11.45, 12.58, 12.14, 8.63, 5.31, 1.79, -0.0, -0.45, 0.89, 4.92, 8.05, 8.43, 7.74, 7.89, 8.05, 8.03, 7.64, 7.97, 7.97, 7.9, 8.6, 8.22, 8.12, 7.8, 7.02, 7.12, 6.09, 6.2, 6.2, 6.31, 6.31, 6.57, 6.45, 7.12, 7.12, 8.01, 8.12, 7.82, 7.73, 7.01, 7.01, 6.2, 4.65, 4.75, 3.91, 3.96, 3.11, 2.82, 1.54, 0.74, 0.0, 0.0, 0.0, -0.77, -2.28, -2.11, 1.58, 6.06, 7.07, 7.06, 6.32, 7.02, 6.95, 7.02, 6.39, 6.08, 6.64, 7.2, 7.26, 7.21, 7.01, 6.6, 7.21, 7.26, 7.69, 8.0, 8.22, 8.22, 8.3, 8.22, 7.42, 7.03, 6.64, 7.71, 7.11, 6.21, 6.65, 7.52, 6.55, 6.36, 7.4, 8.22, 8.8, 7.42, 7.76, 7.89, 8.63, 10.02, 11.96, 13.39, 13.84, 13.36, 11.52, 10.22, 8.14, 5.86, 6.65, 8.49, 8.91, 8.82, 8.82, 8.63, 8.06, 7.35, 8.03, 7.64, 7.64, 7.59, 7.9, 7.82, 6.97, 7.24, 6.76, 6.33, 6.45, 6.2, 6.31, 6.31, 6.42, 6.31, 6.2, 6.97, 8.12, 9.56, 9.48, 8.37, 7.12, 6.21, 5.38, 5.55, 4.55, 4.06, 3.02, 3.16, 2.25, 3.07, 2.17, 0.72, 0.81, 0.0, 0.0, -0.74, -2.18, 0.0, 6.01, 7.67, 7.07, 6.68, 7.02, 6.64, 6.95, 6.95, 6.95, 7.02, 7.06, 7.44, 6.79, 6.79, 6.6, 6.6, 6.79, 7.26, 7.26, 7.69, 8.0, 8.22, 8.3, 8.3, 7.6, 6.54, 5.86, 7.11, 7.55, 6.65, 6.66, 6.66, 6.21, 5.7, 6.23, 6.94, 8.0, 8.15, 7.63, 7.89, 8.45, 9.83, 11.18, 11.98, 12.42, 12.52, 12.92, 11.88, 11.76, 10.8, 10.01, 9.54, 9.26, 8.19, 8.0, 8.05, 7.41, 7.35, 7.35, 7.27, 7.27, 7.18, 7.22, 7.08, 6.97, 7.24, 6.97, 6.45, 6.2, 6.31, 6.31, 6.42, 6.42, 6.31, 6.05, 7.27, 9.3, 11.28, 10.81, 9.71, 7.85, 6.44, 5.4, 4.75, 5.6, 4.92, 3.46, 2.35, 1.6, 2.28, 2.35, 0.7, 0.66, 0.76, 0.76, 0.0, 0.0, 3.07, 7.03, 7.67, 6.39, 6.64, 6.24, 6.24, 6.24, 6.24, 6.53, 6.53, 6.32, 6.7, 6.79, 6.79, 6.51, 6.51, 6.79, 6.94, 7.4, 7.26, 7.51, 8.0, 8.3, 8.48, 7.89, 6.28, 5.59, 6.65, 7.15, 7.15, 6.71, 6.71, 6.61, 7.5, 7.06, 6.79, 7.21, 8.17, 8.6, 8.94, 9.39, 8.94, 9.26, 9.54, 9.33, 8.14, 8.05, 7.74, 8.22, 7.81, 8.06, 7.89, 8.14, 7.47, 7.6, 7.81, 7.41, 7.02, 7.35, 7.27, 7.18, 7.18, 7.18, 7.08, 7.08, 6.97, 7.24, 6.97, 7.08, 6.31, 6.42, 6.14, 6.14, 5.64, 6.24, 7.69, 10.23, 10.91, 11.14, 10.98, 10.25, 8.56, 6.97, 6.87, 7.67, 7.79, 6.33, 4.12, 3.15, 2.31, 2.99, 1.3, 0.7, 1.33, 1.47, 1.55, 2.41, 5.75, 7.47, 7.07, 6.01, 6.24, 6.24, 6.24, 5.49, 5.21, 5.49, 5.49, 5.3, 5.72, 6.72, 6.1, 6.1, 6.1, 6.3, 6.51, 6.94, 7.21, 7.26, 7.51, 8.0, 8.48, 8.14, 7.37, 5.75, 6.26, 7.15, 6.71, 6.71, 6.26, 6.26, 7.6, 8.49, 8.87, 8.41, 8.41, 9.39, 9.39, 9.83, 9.39, 7.56, 7.42, 6.7, 5.75, 4.92, 5.09, 4.81, 4.26, 4.95, 5.82, 6.98, 7.21, 8.0, 7.69, 7.06, 6.32, 6.24, 6.24, 6.42, 6.42, 6.42, 7.18, 7.08, 7.08, 6.97, 6.97, 6.57, 6.31, 6.42, 6.14, 5.38, 5.49, 7.06, 9.49, 10.68, 11.28, 10.81, 11.7, 11.7, 10.98, 9.7, 8.76, 9.4, 9.6, 9.22, 7.79, 5.41, 4.0, 4.5, 2.2, 1.16, 0.61, 0.7, 1.84, 4.4, 6.79, 7.03, 7.06, 5.94, 5.49, 5.49, 5.38, 5.13, 4.83, 4.83, 4.56, 4.65, 5.43, 6.3, 6.1, 6.1, 6.1, 6.3, 6.47, 6.51, 6.94, 6.79, 7.26, 7.74, 8.3, 8.33, 7.42, 7.97, 6.71, 7.15, 6.26, 6.21, 5.31, 4.92, 6.21, 7.11, 8.49, 8.87, 8.05, 8.94, 8.94, 8.87, 8.45, 8.05, 7.11, 6.51, 5.75, 5.36, 4.85, 4.84, 4.75, 5.06, 5.2, 5.7, 6.14, 6.8, 6.7, 6.01, 5.89, 5.76, 4.96, 4.71, 5.72, 6.98, 6.88, 6.79, 6.31, 6.31, 6.2, 6.31, 5.64, 5.76, 5.76, 5.49, 6.39, 8.55, 10.68, 10.68, 10.9, 10.86, 11.14, 11.38, 11.19, 10.15, 8.56, 7.28, 7.25, 6.79, 6.09, 5.38, 4.68, 4.71, 3.85, 2.35, 0.7, 0.61, 2.15, 5.43, 7.2, 7.06, 6.01, 5.49, 5.49, 4.8, 5.04, 5.13, 4.83, 4.56, 4.36, 5.09, 5.09, 6.3, 6.1, 6.0, 6.0, 6.3, 6.47, 6.47, 6.47, 6.79, 6.79, 6.97, 7.58, 8.0, 7.55, 8.43, 7.15, 6.71, 6.26, 5.77, 5.75, 4.47, 4.41, 4.66, 5.75, 6.26, 6.26, 6.71, 7.15, 7.5, 8.41, 8.94, 8.94, 7.6, 6.71, 5.75, 4.15, 3.22, 4.11, 4.74, 4.65, 5.2, 4.4, 4.65, 4.74, 4.47, 4.71, 4.83, 4.6, 5.59, 6.95, 5.89, 6.14, 6.42, 6.42, 5.52, 5.52, 5.28, 4.71, 5.1, 4.83, 4.95, 7.42, 9.33, 10.43, 10.55, 10.28, 9.56, 9.4, 9.6, 9.66, 8.62, 7.11, 5.48, 3.96, 3.14, 3.47, 3.87, 3.76, 3.02, 2.41, 2.21, 0.64, 0.61, 3.49, 5.69, 5.72, 5.64, 4.71, 4.46, 4.71, 4.8, 4.8, 4.71, 4.71, 4.65, 4.43, 4.75, 5.09, 6.1, 6.0, 6.0, 6.0, 5.81, 6.04, 6.04, 6.04, 6.3, 6.3, 6.6, 6.26, 7.15, 7.1, 7.37, 7.1, 6.71, 5.81, 5.81, 5.36, 5.36, 4.92, 5.29, 4.82, 4.92, 4.92, 4.47, 4.47, 6.26, 7.6, 7.6, 7.15, 6.71, 6.14, 4.8, 3.22, 2.8, 3.16, 3.79, 3.49, 4.65, 4.29, 3.22, 3.22, 3.2, 3.8, 5.72, 6.69, 7.64, 7.27, 7.27, 5.49, 5.76, 5.38, 4.83, 4.6, 4.96, 5.59, 5.24, 3.9, 5.82, 8.4, 9.33, 10.01, 9.27, 9.04, 7.82, 7.9, 7.69, 7.11, 6.89, 6.34, 4.66, 2.81, 2.13, 1.51, 1.54, 0.79, 0.78, 1.36, 2.99, 2.12, 2.98, 4.43, 5.06, 4.02, 3.55, 4.03, 3.6, 4.37, 4.37, 4.87, 4.94, 4.56, 5.06, 5.43, 5.09, 4.46, 5.6, 6.0, 6.0, 5.6, 5.81, 5.99, 6.04, 6.04, 5.88, 5.81, 5.99, 5.78, 4.92, 5.33, 6.02, 6.02, 5.73, 5.36, 4.92, 4.92, 5.36, 5.36, 5.36, 5.36, 5.36, 4.92, 4.24, 4.24, 5.2, 5.81, 4.92, 4.02, 3.82, 4.09, 4.65, 4.65, 3.35, 2.98, 3.79, 3.76, 3.9, 3.79, 3.09, 3.09, 2.26, 3.8, 5.49, 7.27, 8.6, 7.97, 6.95, 6.53, 5.76, 4.71, 4.26, 3.2, 3.33, 4.16, 4.65, 4.81, 6.7, 9.54, 10.79, 9.6, 8.67, 6.64, 5.64, 5.77, 5.52, 5.45, 4.81, 4.3, 4.3, 2.81, 2.09, 0.7, 0.0, 0.0, 0.0, 2.88, 6.35, 9.21, 6.98, 6.28, 5.64, 4.02, 3.55, 3.55, 3.97, 4.22, 4.94, 4.94, 4.56, 5.37, 5.37, 5.37, 5.09, 4.12, 5.6, 5.6, 5.37, 5.6, 5.6, 5.81, 5.99, 5.99, 5.81, 5.81, 5.4, 5.09, 5.33, 4.88, 5.09, 5.09, 5.09, 3.98, 2.68, 2.24, 2.54, 2.68, 3.13, 3.58, 5.36, 4.24, 3.82, 2.84, 1.9, 2.24, 1.9, 0.63, 0.95, 2.53, 3.58, 4.11, 4.11, 3.49, 3.47, 3.2, 3.91, 3.27, 3.15, 2.28, 2.33, 4.03, 5.3, 6.73, 6.73, 7.02, 8.03, 8.65, 8.65, 8.03, 6.39, 5.06, 3.79, 1.98, 3.16, 5.75, 8.14, 9.33, 9.9, 9.27, 7.97, 6.14, 4.2, 3.11, 3.29, 2.45, 2.33, 2.12, 2.12, 1.38, 0.0, -0.72, -1.42, 0.0, 1.4, 6.4, 8.93, 10.65, 12.01, 10.18, 9.84, 8.59, 7.61, 6.35, 6.32, 5.69, 5.64, 5.3, 4.56, 5.37, 6.06, 6.06, 5.09, 5.05, 5.6, 5.6, 5.37, 5.37, 5.6, 5.81, 5.57, 5.57, 5.81, 5.6, 5.08, 5.31, 5.24, 4.77, 4.11, 4.11, 3.7, 3.7, 2.91, 2.17, 1.34, 1.34, 2.24, 4.47, 4.24, 3.72, 3.16, 0.54, -0.0, 0.0, 0.0, 1.74, 1.74, 1.2, 0.99, 0.98, 1.47, 2.29, 3.11, 3.4, 3.27, 2.99, 2.31, 2.17, 3.4, 4.43, 6.8, 7.2, 7.6, 8.22, 9.2, 10.8, 12.7, 13.49, 12.56, 11.09, 8.63, 4.0, 1.79, 5.75, 9.54, 10.01, 9.2, 8.06, 7.64, 7.9, 7.08, 4.71, 3.21, 4.13, 4.17, 3.47, 0.7, -1.56, -2.31, -2.35, 0.0, 1.86, 7.76, 10.1, 10.43, 11.09, 11.83, 13.14, 13.61, 13.61, 12.05, 9.84, 8.59, 7.27, 6.92, 5.59, 5.64, 5.37, 6.06, 6.06, 5.46, 6.4, 5.6, 5.6, 5.21, 5.21, 5.47, 5.4, 5.57, 5.57, 5.4, 5.6, 5.47, 5.08, 4.9, 5.09, 4.6, 3.88, 3.6, 4.11, 3.7, 2.68, 1.86, 1.79, 2.24, 2.17, 2.4, 1.9, 1.61, 1.16, 1.2, 1.26, 1.79, 2.53, 2.15, 1.6, 0.76, 0.87, 1.41, 3.22, 3.47, 3.0, 2.51, 2.51, 1.63, 2.4, 2.84, 4.4, 6.79, 7.74, 8.22, 8.22, 8.48, 9.83, 11.28, 12.62, 14.1, 15.02, 14.09, 10.59, 4.22, 6.26, 10.16, 10.43, 9.03, 8.05, 9.27, 10.29, 11.18, 11.28, 9.67, 10.9, 12.16, 10.98, 5.64, -1.8, -4.22, -0.95, 2.68, 8.01, 10.8, 11.3, 11.47, 10.8, 9.82, 9.23, 12.52, 12.52, 11.14, 9.8, 8.49, 7.8, 6.81, 5.78, 5.64, 6.06, 6.39, 6.06, 6.64, 7.2, 5.47, 5.21, 5.21, 5.21, 5.47, 5.31, 5.4, 5.51, 5.31, 5.47, 5.21, 5.21, 5.31, 4.9, 4.4, 3.88, 3.7, 4.11, 4.11, 3.35, 2.15, 1.86, 2.17, 1.79, 0.89, 1.7, 2.15, 2.21, 2.5, 2.4, 2.68, 3.39, 2.73, 2.68, 2.3, 2.41, 2.84, 3.35, 3.22, 1.6, 1.52, 1.6, 1.19, 5.06, 6.13, 7.63, 6.07, 5.81, 5.81, 7.2, 7.63, 7.21, 7.5, 7.63, 8.22, 8.3, 9.88, 12.57, 11.52, 8.63, 10.25, 11.13, 11.21, 10.79, 10.68, 11.83, 13.19, 14.53, 14.38, 12.39, 14.49, 15.74, 12.45, 3.16, -3.22, 0.99, 6.66, 9.81, 10.95, 10.8, 10.87, 9.66, 8.53, 7.73, 9.2, 8.37, 7.79, 7.01, 7.02, 6.29, 6.36, 5.59, 6.32, 6.64, 6.01, 7.06, 7.28, 7.67, 5.21, 5.21, 5.21, 5.21, 5.08, 5.08, 5.31, 5.31, 5.31, 5.08, 5.21, 5.21, 5.47, 5.08, 4.69, 4.27, 4.11, 4.11, 3.88, 3.14, 1.61, 1.86, 2.91, 2.15, 0.6, 0.89, 2.17, 2.91, 2.91, 3.09, 3.13, 3.07, 4.09, 2.98, 4.11, 4.65, 5.01, 3.79, 2.49, 1.47, 1.6, 2.26, 4.02, 5.59, 6.8, 6.79, 7.06, 6.23, 6.23, 4.0, 5.01, 5.2, 3.35, 3.35, 4.11, 4.74, 5.69, 8.22, 10.75, 10.41, 9.11, 9.33, 10.21, 10.62, 10.8, 11.6, 12.62, 12.17, 10.41, 8.94, 10.28, 12.84, 12.77, 8.36, 0.76, 2.0, 5.36, 8.14, 8.67, 8.65, 7.9, 7.08, 6.29, 5.47, 4.23, 5.51, 5.4, 5.2, 4.92, 4.68, 4.5, 4.94, 5.94, 6.28, 5.94, 7.67, 7.67, 7.67, 5.21, 5.21, 5.21, 4.84, 4.84, 5.08, 5.31, 4.9, 5.31, 5.08, 5.47, 5.21, 5.37, 5.6, 5.21, 4.55, 4.27, 4.6, 4.27, 2.53, 1.9, 2.49, 3.87, 3.35, 1.0, 0.63, 1.79, 3.07, 3.09, 3.58, 3.58, 3.09, 2.68, 2.73, 4.46, 4.22, 4.19, 3.79, 2.6, 2.6, 2.53, 4.11, 5.93, 6.52, 6.13, 6.23, 6.58, 5.81, 5.6, 5.01, 4.74, 2.84, 3.16, 1.98, 2.48, 2.2, 4.02, 4.71, 6.24, 7.27, 7.67, 8.8, 8.0, 7.81, 6.52, 6.87, 7.35, 7.9, 7.9, 8.0, 8.05, 8.16, 7.91, 8.68, 6.35, 3.91, 5.82, 7.06, 6.53, 6.14, 5.76, 4.6, 3.95, 3.02, 2.31, 1.56, 3.16, 3.02, 3.02, 3.11, 3.27, 4.94, 5.59, 6.01, 7.33, 6.96, 6.96, 6.96, 4.84, 4.65, 4.65, 4.65, 4.65, 5.08, 4.9, 4.9, 4.9, 5.31, 5.08, 5.21, 5.37, 5.75, 5.37, 5.08, 4.8, 4.9, 4.55, 3.14, 1.86, 3.53, 5.24, 4.4, 2.5, 1.2, 1.79, 3.13, 3.58, 4.02, 3.58, 3.09, 2.91, 3.72, 3.6, 3.74, 4.15, 3.72, 3.72, 4.11, 4.11, 4.19, 6.13, 4.84, 6.13, 6.64, 6.23, 5.6, 5.01, 4.02, 3.45, 3.68, 3.91, 4.46, 5.03, 5.03, 4.46, 3.35, 4.44, 6.4, 7.81, 7.21, 5.72, 4.71, 4.44, 3.33, 4.22, 5.72, 7.9, 9.08, 6.98, 4.31, 3.87, 5.51, 7.28, 8.5, 9.4, 7.9, 6.2, 4.5, 3.88, 3.06, 2.44, 1.4, 0.78, 0.0, 0.78, 1.44, 3.06, 3.91, 4.22, 4.29, 4.71, 6.35, 7.07, 6.35, 6.35, 6.35, 4.65, 4.65, 4.65, 4.65, 4.65, 4.93, 4.55, 4.8, 4.8, 4.55, 4.93, 5.08, 5.47, 5.37, 5.37, 4.84, 5.31, 5.4, 5.08, 3.88, 3.07, 4.47, 5.78, 5.57, 4.19, 2.4, 3.09, 3.98, 3.98, 3.98, 3.87, 3.39, 2.91, 2.91, 2.91, 2.97, 2.68, 2.8, 2.84, 2.23, 2.84, 3.72, 3.72, 3.48, 4.74, 5.06, 5.36, 4.74, 4.02, 3.68, 2.66, 2.4, 3.4, 4.22, 5.03, 6.01, 4.71, 4.96, 5.72, 6.64, 6.64, 6.01, 4.44, 3.35, 3.35, 2.35, 2.2, 3.45, 4.71, 6.98, 4.72, 3.11, 2.32, 3.99, 6.37, 8.5, 10.15, 9.66, 7.79, 5.52, 4.0, 3.15, 1.58, 0.71, 0.69, 0.79, 1.47, 1.58, 3.8, 4.37, 4.71, 3.9, 5.09, 6.35, 6.39, 6.06, 6.32, 6.32, 4.65, 4.65, 4.37, 4.37, 4.65, 4.29, 4.55, 4.8, 4.8, 4.55, 4.55, 4.55, 5.08, 5.47, 5.21, 5.82, 4.9, 5.4, 5.4, 4.9, 4.34, 5.36, 5.81, 6.21, 6.02, 6.23, 5.09, 5.59, 5.09, 4.19, 4.11, 3.6, 3.39, 3.32, 2.91, 2.17, 1.34, 0.95, 1.2, 1.13, 1.66, 1.83, 1.3, 2.32, 3.45, 3.45, 4.02, 3.45, 2.49, 2.66, 2.4, 2.4, 3.91, 4.75, 5.69, 6.01, 5.44, 5.72, 6.64, 6.01, 5.72, 4.44, 4.44, 3.2, 2.35, 2.2, 2.4, 2.47, 2.51, 2.21, 1.14, 3.04, 3.83, 4.85, 5.51, 5.55, 5.6, 6.2, 7.11, 6.2, 2.35, 1.55, 0.78, 0.69, 1.47, 1.35, 2.29, 2.72, 4.0, 4.07, 4.71, 5.3, 5.43, 6.32, 6.7, 6.01, 5.3, 5.3, 4.37, 4.37, 4.37, 4.11, 4.11, 4.29, 4.55, 4.55, 4.4, 4.55, 4.55, 4.55, 4.55, 4.93, 4.65, 4.29, 4.55, 5.09, 6.02, 5.59, 5.59, 5.26, 4.89, 5.29, 5.09, 5.2, 5.6, 4.8, 4.4, 4.11, 4.11, 3.6, 3.6, 3.2, 2.91, 2.4, 1.7, 0.6, 0.0, 0.0, 0.57, 1.19, 1.16, 1.14, 1.84, 2.66, 2.49, 2.49, 2.49, 2.26, 2.26, 2.26, 4.47, 5.93, 4.46, 4.43, 5.72, 5.0, 5.1, 4.44, 3.8, 3.6, 3.35, 3.35, 3.0, 3.22, 3.47, 3.9, 3.2, 2.31, 2.28, 3.11, 3.07, 3.99, 3.96, 2.28, 0.8, 0.76, 3.14, 2.99, 2.28, 0.79, 0.82, 0.76, 1.52, 2.12, 2.72, 2.12, 2.9, 3.47, 4.56, 6.32, 6.06, 6.06, 6.32, 6.24, 5.38, 5.38, 4.37, 4.11, 4.11, 4.11, 4.11, 4.07, 4.07, 4.0, 4.0, 4.0, 4.55, 4.55, 4.55, 4.55, 4.65, 4.07, 4.0, 4.11, 4.3, 4.66, 5.09, 4.66, 4.6, 3.6, 3.2, 3.35, 3.72, 3.88, 4.11, 4.11, 3.35, 3.35, 3.35, 3.6, 3.2, 2.91, 2.4, 1.86, 0.71, 0.53, 0.59, 0.55, 1.16, 1.05, 1.16, 1.32, 1.23, 1.32, 1.18, 1.18, 2.26, 3.68, 5.59, 5.93, 5.93, 4.11, 4.65, 5.0, 5.46, 4.71, 3.6, 3.4, 3.4, 3.6, 3.9, 4.65, 4.74, 5.3, 5.49, 5.38, 5.52, 4.65, 2.3, 0.0, 0.0, 0.0, -2.1, -1.56, 0.0, 1.52, 3.16, 3.06, 2.4, 2.12, 2.54, 1.6, 2.11, 2.6, 3.55, 4.02, 5.06, 6.01, 6.64, 6.32, 5.98, 5.78, 5.46, 5.46, 4.11, 4.11, 4.11, 4.11, 4.11, 3.79, 4.07, 4.0, 4.0, 4.0, 4.0, 4.37, 4.55, 4.29, 4.07, 4.07, 4.0, 3.88, 3.6, 3.6, 3.7, 4.11, 4.11, 3.35, 3.35, 3.14, 3.6, 3.7, 4.11, 3.7, 3.6, 3.35, 3.35, 3.35, 3.6, 3.2, 3.07, 2.5, 1.61, 1.0, 0.61, 0.57, 0.55, 1.07, 1.16, 1.16, 1.32, 1.32, 1.18, 1.18, 3.45, 5.06, 6.13, 5.59, 5.59, 5.93, 5.06, 5.69, 6.01, 4.46, 3.33, 3.33, 2.47, 3.11, 4.65, 5.37, 5.37, 5.43, 6.06, 8.0, 8.94, 8.66, 7.0, 1.58, -1.63, -0.74, -0.67, -1.4, 0.0, 1.4, 3.69, 4.4, 4.5, 3.88, 2.4, 2.11, 2.2, 3.72, 5.0, 4.71, 5.37, 6.01, 6.58, 6.23, 5.52, 5.52, 4.71, 4.71, 4.11, 4.11, 4.11, 4.11, 4.11, 3.79, 4.07, 3.73, 4.0, 4.0, 4.0, 4.0, 4.37, 4.07, 4.07, 3.79, 3.73, 4.0, 3.88, 3.88, 3.88, 4.11, 3.35, 3.35, 3.14, 3.14, 3.6, 3.7, 4.11, 3.7, 3.6, 3.6, 3.35, 3.35, 3.6, 3.6, 3.07, 2.79, 2.21, 1.61, 1.13, 1.13, 1.23, 1.19, 1.07, 1.88, 1.32, 1.32, 1.32, 2.49, 4.74, 5.06, 4.74, 4.74, 4.74, 5.06, 4.81, 5.77, 5.69, 4.16, 3.47, 3.47, 4.01, 4.43, 5.06, 5.06, 5.43, 5.46, 6.07, 7.03, 7.64, 9.08, 7.0, 2.1, 0.0, 0.0, 0.71, 0.69, 0.67, 0.69, 2.01, 3.16, 3.07, 2.31, 2.31, 3.9, 4.36, 4.56, 5.3, 4.56, 5.0, 6.28, 6.23, 5.7, 5.46, 4.73, 4.2, 4.2, 4.11, 4.11, 4.11, 4.11, 3.49, 3.49, 3.49, 3.48, 4.0, 4.0, 4.0, 4.0, 4.0, 4.07, 4.07, 3.79, 4.07, 4.0, 4.0, 4.0, 3.64, 3.88, 3.35, 3.14, 3.14, 3.14, 3.6, 3.7, 4.11, 3.6, 3.6, 3.2, 3.6, 3.6, 3.35, 3.35, 3.14, 2.79, 2.23, 2.23, 1.6, 1.27, 1.23, 1.08, 1.19, 1.19, 1.32, 1.18, 1.18, 2.66, 3.68, 4.02, 3.76, 3.76, 5.01, 5.01, 4.19, 4.81, 5.06, 5.06, 4.43, 4.11, 4.43, 4.74, 4.74, 5.06, 5.43, 7.76, 6.44, 5.82, 4.81, 4.34, 8.02, 7.95, 3.18, 0.0, 0.0, 0.0, 0.0, -0.69, -0.71, -0.7, 0.0, 0.72, 3.09, 4.56, 5.59, 5.21, 5.21, 5.59, 4.95, 5.64, 5.7, 5.62, 4.2, 3.61, 3.44, 3.44, 4.11, 4.11, 3.49, 3.49, 3.49, 3.22, 3.49, 3.48, 3.48, 3.78, 3.78, 4.0, 4.0, 3.73, 4.07, 3.49, 3.49, 3.48, 4.0, 4.0, 4.0, 3.43, 3.43, 2.84, 2.23, 3.14, 3.6, 3.7, 3.7, 3.6, 3.6, 3.2, 3.2, 3.6, 3.6, 3.35, 3.14, 3.14, 2.51, 2.51, 2.23, 1.8, 1.76, 1.73, 1.73, 1.16, 0.58, 0.56, 1.09, 1.16, 1.63, 2.26, 2.6, 4.11, 4.65, 4.65, 4.65, 3.16, 3.16, 4.43, 4.74, 4.43, 3.79, 4.11, 4.74, 5.15, 6.07, 7.03, 6.82, 3.79, 2.35, 2.31, 6.64, 11.04, 9.63, 3.82, -1.45, -3.91, -4.36, -4.0, -4.28, -4.4, -1.44, 2.12, 5.59, 6.32, 5.49, 5.59, 5.59, 6.64, 6.53, 5.86, 5.46, 4.92, 4.12, 2.69, 2.9, 2.9, 3.49, 3.49, 3.49, 3.49, 3.49, 3.22, 3.49, 3.48, 3.48, 3.78, 3.78, 3.78, 3.48, 3.48, 3.48, 3.49, 3.49, 3.48, 3.78, 4.0, 4.0, 3.48, 3.16, 2.84, 2.53, 3.14, 3.6, 4.11, 3.7, 3.6, 3.6, 3.2, 3.39, 3.6, 3.6, 3.35, 3.14, 3.14, 2.84, 2.84, 2.48, 2.48, 2.44, 2.2, 1.7, 1.7, 1.23, 0.56, 0.58, 0.58, 0.59, 0.53, 1.41, 3.79, 5.2, 4.65, 4.11, 3.79, 5.01, 2.98, 3.49, 4.19, 4.01, 4.01, 4.11, 5.43, 6.4, 6.4, 5.43, 4.01, 2.47, 2.33, 5.48, 10.35, 13.27, 12.21, 4.31, -4.73, -4.84, -5.09, -5.06, -1.16, 1.4, 6.08, 7.61, 7.18, 6.14, 5.94, 5.59, 5.98, 5.86, 6.17, 4.87, 4.2, 3.51, 2.31, 2.12, 2.12, 3.49, 3.49, 3.49, 3.49, 3.49, 2.84, 2.84, 3.12, 3.48, 3.48, 3.78, 3.48, 3.48, 3.48, 3.49, 3.12, 2.86, 3.15, 3.43, 3.78, 3.48, 3.48, 2.86, 2.23, 2.23, 2.79, 3.6, 3.7, 3.6, 3.6, 3.6, 3.87, 4.3, 4.11, 4.11, 3.72, 3.35, 3.14, 3.14, 2.84, 2.84, 2.86, 2.86, 2.84, 2.36, 1.67, 1.12, 0.56, 0.0, 0.0, 0.0, 0.0, 0.59, 2.51, 3.48, 3.16, 4.11, 3.79, 2.6, 2.6, 3.16, 3.47, 3.49, 3.35, 5.59, 5.43, 5.43, 5.43, 4.65, 3.33, 1.63, 0.79, 3.11, 6.4, 11.02, 13.82, 11.8, 0.0, -6.07, -2.68, 0.0, 3.51, 7.06, 7.28, 6.98, 6.92, 7.08, 6.88, 6.14, 5.49, 4.28, 4.4, 4.8, 3.78, 3.61, 2.69, 2.06, 2.06, 3.49, 3.49, 3.49, 3.49, 3.08, 2.84, 2.84, 3.12, 2.86, 3.48, 3.48, 3.48, 3.48, 3.48, 3.49, 2.84, 2.61, 2.86, 3.16, 3.43, 3.48, 3.48, 2.86, 2.48, 2.23, 3.2, 3.6, 3.2, 2.79, 2.68, 3.39, 4.43, 4.34, 4.19, 3.88, 3.88, 3.72, 3.72, 3.35, 3.14, 2.84, 3.16, 3.48, 3.49, 3.08, 3.04, 2.32, 1.1, 0.0, 0.0, -0.57, 0.0, 1.13, 2.86, 3.43, 3.16, 2.98, 3.48, 3.83, 2.23, 1.49, 1.7, 1.6, 3.07, 4.46, 6.8, 4.81, 3.47, 2.47, 2.51, 1.55, 0.0, 0.0, 1.52, 4.75, 6.47, 8.82, 6.09, -1.2, -1.49, 1.79, 5.26, 6.1, 7.92, 6.58, 6.17, 6.36, 6.31, 5.41, 4.71, 4.0, 3.06, 3.85, 3.39, 3.61, 2.7, 2.11, 2.11, 3.22, 3.22, 3.49, 3.08, 3.08, 2.84, 2.84, 2.84, 2.86, 3.48, 3.48, 3.48, 3.48, 3.48, 3.49, 2.82, 2.4, 2.22, 2.84, 2.84, 3.16, 3.15, 2.86, 2.22, 2.84, 3.6, 3.07, 2.79, 2.21, 2.5, 3.53, 3.98, 4.34, 4.19, 3.88, 3.88, 3.88, 3.88, 3.72, 3.72, 3.43, 3.16, 3.16, 3.35, 4.01, 4.12, 3.04, 1.76, 0.53, -0.53, 0.0, 1.33, 2.86, 3.78, 3.49, 2.23, 2.73, 3.48, 3.22, 1.26, 0.71, 0.81, 0.81, 2.41, 3.83, 4.81, 4.74, 2.6, 1.7, 0.78, 0.79, 0.0, 0.0, -1.65, -1.62, -0.79, 1.58, 5.6, 3.95, 0.0, 0.6, 2.97, 4.55, 5.06, 6.23, 5.95, 5.7, 4.6, 3.85, 3.85, 3.11, 2.28, 2.76, 3.53, 2.71, 2.19, 2.02, 2.02, 2.84, 2.84, 3.08, 2.82, 2.82, 2.84, 2.84, 2.84, 2.86, 3.15, 3.48, 3.16, 3.48, 3.48, 3.22, 2.82, 2.82, 2.44, 2.84, 2.53, 2.84, 2.48, 1.58, 2.48, 2.84, 2.79, 3.07, 2.79, 2.53, 2.91, 3.58, 3.98, 4.3, 4.11, 3.88, 3.88, 3.88, 3.88, 3.88, 3.64, 3.43, 3.16, 2.84, 2.51, 2.86, 4.29, 3.55, 2.2, 1.8, 2.22, 2.84, 3.47, 4.12, 4.12, 3.49, 2.86, 1.8, 1.84, 0.8, 1.74, 0.0, 0.0, 1.49, 2.84, 3.84, 3.35, 3.72, 3.76, 2.53, 0.0, 0.0, 0.79, 0.8, -0.77, -3.25, -3.96, -0.77, 1.54, 5.42, 4.75, 1.49, 1.0, 2.84, 4.47, 5.08, 4.92, 4.15, 3.53, 2.82, 2.1, 2.14, 1.54, 1.41, 2.28, 2.02, 2.02, 1.39, 1.39, 2.84, 2.84, 3.08, 2.82, 2.82, 2.61, 2.84, 2.84, 2.86, 2.86, 3.15, 3.15, 2.86, 3.48, 3.22, 2.82, 2.36, 2.4, 2.48, 2.51, 2.23, 1.8, 1.8, 1.8, 2.84, 2.84, 2.79, 2.68, 3.07, 3.87, 3.98, 3.98, 3.87, 3.7, 4.11, 3.88, 3.88, 3.88, 4.27, 4.0, 3.43, 3.16, 2.84, 2.51, 1.84, 1.83, 1.63, 2.29, 2.32, 2.8, 3.04, 2.82, 2.84, 3.49, 3.22, 3.12, 2.22, 1.84, 1.2, 0.99, 0.0, 0.0, 1.66, 2.3, 2.3, 1.66, 2.3, 3.22, 3.22, 0.0, 0.0, 1.72, 3.06, 2.41, -0.74, -3.19, -1.58, 0.0, 2.28, 4.04, 3.47, 2.69, 2.61, 3.83, 3.94, 3.37, 2.84, 2.1, 1.44, 1.39, 0.73, 0.0, 0.0, 0.0, 1.38, 1.41, 1.36, 1.36, 2.84, 2.84, 2.82, 2.82, 2.82, 2.36, 2.18, 2.4, 2.86, 2.86, 3.15, 2.86, 2.86, 3.15, 3.12, 2.82, 2.32, 2.36, 2.44, 2.48, 2.23, 1.8, 1.6, 1.84, 2.53, 2.84, 2.79, 3.39, 4.38, 3.98, 3.98, 3.87, 3.87, 3.7, 4.11, 4.11, 4.11, 4.11, 3.88, 4.0, 3.43, 3.16, 2.84, 2.51, 1.27, 0.55, 0.58, 1.2, 1.76, 1.67, 2.18, 2.2, 2.22, 2.6, 2.86, 2.84, 2.44, 1.8, 1.16, 0.53, 0.0, 0.88, 1.83, 1.49, 0.88, 0.79, 0.0, 0.0, 1.05, 1.05, 0.88, 1.55, 2.26, 3.34, 1.54, -0.79, -0.82, 0.0, 0.81, 2.05, 3.62, 4.24, 3.53, 2.86, 2.75, 2.19, 1.72, 0.56, 0.0, 0.0, 0.0, -0.72, -0.68, -0.71, 0.0, 0.0, 0.68, 0.68, 2.84, 2.84, 2.82, 2.82, 2.36, 2.36, 2.18, 2.4, 2.61, 2.86, 2.86, 2.86, 2.86, 2.86, 2.84, 2.36, 2.32, 1.67, 2.18, 2.44, 2.48, 1.8, 1.8, 1.84, 2.53, 3.14, 3.35, 3.39, 3.53, 4.38, 3.98, 3.87, 3.87, 4.11, 4.11, 4.11, 4.11, 4.11, 3.88, 4.0, 3.78, 3.43, 3.16, 2.48, 1.76, 1.19, 0.53, 0.58, 1.14, 1.16, 1.23, 1.8, 2.23, 2.48, 2.86, 2.44, 2.44, 1.76, 1.13, 0.61, 0.61, 1.66, 1.41, 0.79, 0.79, 0.79, 0.0, 0.0, 0.0, 1.14, 1.47, 0.73, 0.76, 0.0, 0.77, 1.53, 0.77, 0.79, 0.68, 1.4, 2.84, 3.47, 2.88, 2.06, 1.09, 0.54, 0.0, 0.0, -0.75, -0.79, -1.52, -2.1, -2.14, -2.02, -1.41, 0.0, 0.0, 0.0, 2.4, 2.4, 2.18, 2.36, 2.36, 2.36, 2.18, 2.4, 2.2, 2.86, 2.86, 2.86, 2.86, 2.86, 2.84, 2.36, 1.67, 1.67, 1.7, 2.2, 2.22, 1.58, 1.27, 1.84, 2.53, 2.79, 3.07, 3.39, 3.98, 3.98, 3.98, 3.87, 4.3, 4.11, 4.19, 4.19, 4.19, 4.11, 3.88, 3.43, 3.78, 3.78, 3.48, 3.15, 2.44, 1.73, 0.59, 0.59, 0.55, 0.57, 1.13, 1.8, 2.23, 2.86, 2.86, 2.22, 2.44, 2.44, 1.8, 1.13, 1.41, 1.55, 1.3, 2.4, 1.49, 1.49, 1.49, 1.41, 1.08, 1.14, 2.2, 1.14, 0.0, -0.74, 0.0, 2.39, 3.1, 2.31, 0.7, 0.0, 0.72, 1.36, 1.39, 0.7, 0.0, 0.0, -0.56, -1.08, -1.39, -1.43, -2.18, -3.21, -2.95, -2.93, -2.82, -1.36, -1.39, -1.39, 2.4, 2.4, 2.18, 2.36, 2.36, 2.36, 2.18, 2.18, 2.2, 2.86, 2.6, 2.86, 2.86, 2.6, 2.2, 1.84, 1.67, 1.67, 1.7, 1.88, 1.73, 1.76, 1.58, 2.23, 2.79, 3.07, 3.39, 3.53, 3.98, 3.98, 3.98, 3.98, 4.34, 4.19, 4.19, 4.19, 4.11, 3.88, 3.88, 3.43, 4.0, 4.0, 3.48, 2.86, 2.2, 1.73, 1.19, 0.0, 0.0, 0.0, 1.13, 2.23, 2.86, 2.86, 2.86, 2.86, 2.44, 2.44, 2.22, 1.33, 0.53, 1.41, 1.55, 2.4, 2.6, 2.6, 1.49, 1.66, 0.76, 1.52, 1.52, 1.1, 0.0, -0.81, 0.0, 3.07, 4.81, 4.66, 2.37, 0.0, 0.0, 0.0, 0.0, 0.0, 0.0, 0.0, 0.0, -0.7, -0.73, -0.71, -1.41, -1.35, -2.23, -2.15, -2.1, -2.1, -2.06, -2.06, 2.4, 2.4, 2.18, 2.36, 2.36, 1.84, 1.7, 2.18, 2.4, 2.44, 2.86, 2.86, 2.48, 2.22, 2.2, 1.7, 1.67, 1.14, 1.16, 1.55, 1.73, 1.76, 1.8, 2.84, 3.35, 3.6, 3.6, 3.39, 3.98, 3.98, 3.98, 4.43, 4.34, 4.34, 4.19, 4.11, 3.88, 3.88, 3.72, 3.88, 4.27, 4.0, 3.73, 3.48, 2.86, 2.2, 1.11, 0.0, 0.0, 0.61, 2.23, 3.79, 4.07, 3.79, 3.48, 3.15, 2.86, 2.44, 2.44, 1.13, 1.16, 1.2, 1.41, 0.87, 1.66, 1.23, 0.79, 0.81, 0.76, 0.72, 1.1, 0.79, 1.16, 0.0, 0.0, 2.25, 4.71, 6.24, 5.51, 2.8, 0.71, 0.0, 0.0, 0.0, 0.72, 0.68, 0.0, 0.0, 0.0, 0.0, 0.0, 0.0, 0.0, 0.0, 0.0, 0.0, -1.36, -1.36, 2.4, 2.4, 2.18, 1.84, 1.84, 1.84, 1.7, 2.18, 2.4, 2.2, 2.44, 2.22, 2.22, 2.22, 1.73, 1.7, 1.67, 1.14, 1.16, 1.19, 1.08, 1.76, 2.23, 3.35, 3.6, 3.6, 3.6, 3.82, 3.98, 3.98, 3.98, 4.43, 4.34, 4.34, 4.11, 4.11, 3.88, 3.72, 3.88, 3.88, 3.88, 4.27, 4.0, 4.11, 3.2, 2.86, 1.58, 0.51, 0.51, 1.8, 3.49, 4.11, 4.11, 3.79, 3.49, 2.86, 2.86, 2.86, 1.76, 1.8, 1.16, 0.65, 0.0, 0.0, 0.79, 1.23, 0.73, 0.0, 0.0, 0.0, 0.78, 1.49, 2.23, 2.33, 0.0, 0.0, 1.62, 3.07, 3.86, 5.01, 4.24, 2.76, 0.73, 0.0, 0.71, 1.36, 1.33, 0.74, 0.0, 0.0, 0.0, 0.0, 0.0, 0.0, 0.0, 0.0, 0.0, 0.0, 1.88, 1.88, 1.7, 1.7, 1.84, 1.84, 1.7, 1.7, 2.4, 2.2, 2.44, 2.22, 2.22, 1.73, 1.73, 1.7, 1.67, 1.14, 1.16, 1.19, 1.23, 1.58, 2.86, 3.88, 3.72, 3.35, 3.6, 3.82, 3.87, 3.98, 3.98, 4.44, 4.43, 4.3, 3.7, 3.72, 3.72, 3.88, 3.88, 3.88, 3.88, 3.88, 3.72, 4.54, 4.11, 3.22, 2.22, 1.8, 2.22, 3.49, 3.83, 4.11, 3.49, 3.49, 2.86, 2.86, 2.86, 2.44, 1.94, 1.58, 1.33, 0.53, 0.0, 0.0, 0.0, 0.0, 0.0, 0.0, 0.76, 0.72, 1.52, 2.26, 3.45, 4.1, 2.41, 0.0, -1.55, 0.0, 1.4, 3.57, 5.64, 4.86, 2.1, 0.69, 0.7, 1.41, 1.38, 0.71, 0.0, 0.0, 0.0, 0.0, 0.0, 0.0, 0.0, 0.0, 0.0, 0.0, 1.88, 1.88, 1.7, 1.7, 1.67, 1.67, 1.7, 1.7, 2.18, 2.2, 2.44, 2.44, 2.44, 1.73, 1.73, 1.7, 1.14, 1.14, 0.54, 1.08, 1.23, 2.48, 3.43, 4.0, 3.64, 3.72, 3.35, 3.7, 3.87, 4.44, 4.44, 4.44, 3.98, 3.87, 3.6, 3.35, 3.88, 3.88, 3.88, 4.11, 3.88, 3.35, 3.35, 3.14, 4.11, 3.49, 2.84, 2.86, 3.49, 3.49, 3.49, 3.49, 3.12, 2.86, 2.6, 2.22, 2.22, 1.73, 1.73, 1.11, 1.13, 0.61, 0.53, 0.0, 0.0, 0.0, 0.81, 0.76, 0.78, 1.52, 2.47, 3.0, 3.35, 4.48, 5.55, 2.31, -1.63, -2.31, 0.0, 2.81, 4.95, 5.02, 3.47, 1.41, 0.0, 0.0, 0.0, 0.0, 0.0, 0.0, 0.0, 0.0, 0.0, -0.79, -0.76, -0.76, -0.71, 0.0, 1.7, 1.7, 1.7, 1.7, 1.14, 1.67, 1.7, 1.7, 2.18, 2.2, 2.2, 2.44, 1.73, 1.73, 1.7, 1.84, 1.14, 0.58, 0.54, 1.08, 1.76, 2.86, 4.0, 4.0, 4.0, 4.0, 3.88, 4.11, 4.34, 4.44, 4.44, 4.44, 3.87, 3.7, 3.6, 3.6, 4.11, 3.88, 3.88, 3.88, 3.72, 3.35, 2.79, 2.53, 2.23, 3.22, 3.08, 2.84, 3.12, 3.12, 3.12, 2.86, 2.86, 2.22, 2.48, 2.48, 1.76, 1.94, 1.73, 1.23, 1.13, 0.53, 0.0, 0.0, 1.3, 1.14, 0.76, 1.1, 1.6, 3.11, 3.33, 3.33, 2.12, 3.35, 5.6, 6.64, 3.06, 0.0, 0.0, 3.76, 5.81, 5.65, 4.35, 2.12, 0.0, -0.7, 0.0, 0.0, 0.0, -0.74, -0.71, -0.73, -1.44, -1.56, -1.63, -1.56, -1.56, -1.56, 1.16, 1.16, 1.16, 1.05, 1.14, 1.14, 1.7, 1.7, 1.7, 2.4, 2.2, 1.73, 1.73, 1.73, 1.7, 1.67, 1.12, 0.57, 0.53, 1.08, 2.22, 3.48, 4.0, 4.0, 4.0, 4.0, 4.0, 4.4, 4.77, 4.88, 4.44, 4.34, 3.87, 3.6, 3.6, 3.7, 4.11, 4.11, 3.88, 3.88, 3.35, 3.35, 2.79, 2.53, 1.84, 1.58, 2.2, 2.86, 2.86, 2.86, 2.86, 2.86, 2.86, 2.22, 2.48, 2.23, 1.76, 1.76, 1.08, 1.23, 0.59, 0.61, 0.0, 0.0, 1.3, 1.41, 2.32, 2.32, 2.98, 2.98, 3.47, 2.6, 1.14, 1.63, 3.14, 5.36, 6.9, 4.75, 4.0, 4.8, 6.4, 6.35, 5.72, 3.61, 0.68, -0.73, -1.47, -1.47, -1.47, -1.4, -1.52, -2.23, -2.12, -2.35, -3.02, -2.39, -2.39, -2.39, 1.16, 1.16, 1.16, 1.05, 1.14, 1.14, 1.7, 1.7, 1.7, 1.88, 1.73, 1.73, 1.73, 1.73, 1.7, 1.67, 1.12, 0.57, 0.53, 1.73, 2.44, 3.48, 3.73, 4.0, 3.43, 3.78, 4.0, 4.6, 4.77, 4.77, 4.34, 4.3, 3.7, 3.6, 3.7, 4.11, 4.11, 4.11, 3.88, 3.88, 3.35, 3.14, 2.84, 2.51, 2.23, 1.8, 2.22, 2.44, 2.44, 2.44, 2.44, 2.44, 2.22, 2.48, 2.48, 1.8, 1.58, 1.23, 1.08, 1.08, 0.57, 0.0, 0.0, 0.0, 1.19, 2.6, 2.8, 3.45, 3.22, 3.47, 2.6, 1.55, 0.76, 0.78, 1.58, 2.39, 5.38, 6.9, 7.01, 6.33, 6.9, 6.95, 6.66, 5.86, 2.84, -0.68, -2.26, -2.26, -2.18, -2.12, -2.75, -2.9, -2.99, -3.78, -3.78, -3.21, -3.21, -3.21, 1.16, 1.16, 1.16, 1.05, 1.05, 1.05, 1.16, 1.7, 1.7, 1.88, 1.73, 1.73, 1.73, 1.73, 1.7, 1.14, 0.57, 0.57, 0.58, 1.73, 2.86, 3.48, 3.78, 3.43, 3.43, 3.43, 3.88, 4.6, 4.6, 4.34, 4.3, 3.7, 3.6, 3.6, 3.7, 4.11, 4.11, 4.11, 4.11, 3.88, 3.72, 3.09, 2.84, 2.84, 2.51, 2.23, 2.48, 2.22, 2.22, 2.44, 2.44, 2.22, 2.22, 2.48, 2.48, 1.8, 1.58, 1.23, 1.08, 1.08, 0.57, 0.0, 0.0, 0.0, 1.19, 1.3, 2.6, 1.55, 2.6, 2.4, 1.08, 0.81, 0.76, 0.78, 1.58, 2.35, 4.01, 5.48, 7.01, 7.12, 7.82, 8.56, 7.92, 7.3, 5.73, 1.43, -1.47, -2.11, -2.8, -2.82, -4.15, -4.14, -4.6, -5.52, -4.5, -3.8, -3.8, -3.8, 1.16, 1.16, 0.59, 1.05, 1.05, 1.05, 1.16, 1.7, 1.7, 1.88, 1.73, 1.73, 1.73, 1.16, 1.05, 1.14, 0.57, 0.53, 0.58, 1.7, 2.6, 3.16, 3.43, 3.16, 2.84, 2.84, 3.35, 4.11, 4.11, 3.7, 3.7, 3.6, 3.6, 3.35, 3.88, 4.11, 3.7, 3.7, 4.11, 3.35, 3.35, 3.43, 3.16, 3.16, 2.86, 2.48, 2.48, 2.48, 2.22, 2.22, 2.22, 2.22, 2.48, 2.48, 2.23, 1.8, 1.58, 1.23, 1.08, 0.55, 0.57, 0.51, 0.0, 0.0, 0.51, 1.19, 1.3, 0.73, 0.81, 0.79, 0.0, 0.0, 0.82, 0.83, 1.65, 2.44, 3.11, 4.01, 5.51, 6.2, 7.79, 9.55, 9.63, 8.51, 7.22, 4.35, 0.0, -2.04, -2.88, -4.4, -4.18, -4.46, -4.83, -5.49, -5.49, -4.83, -4.83, -4.83, 0.59, 0.59, 0.53, 0.53, 0.53, 1.05, 1.16, 1.7, 1.7, 1.7, 1.73, 1.73, 1.19, 1.16, 1.14, 0.58, 0.53, 0.58, 1.05, 1.55, 2.86, 2.86, 2.86, 2.86, 2.84, 3.14, 3.2, 3.6, 3.6, 3.6, 3.6, 3.6, 3.35, 3.35, 3.72, 3.72, 3.6, 3.6, 3.6, 3.35, 3.35, 3.43, 3.43, 2.86, 2.86, 2.86, 2.86, 2.86, 2.48, 2.48, 2.48, 2.48, 2.48, 2.23, 1.8, 1.8, 1.58, 1.23, 1.08, 0.55, 0.57, 0.57, 0.0, 0.0, 0.61, 0.0, 0.0, 0.0, 0.0, 0.73, 0.0, 0.76, 0.72, 1.63, 1.55, 2.31, 2.35, 3.25, 4.6, 5.28, 7.24, 8.74, 10.35, 10.27, 9.7, 5.81, 0.72, -0.6, -1.49, -1.47, -1.47, -1.49, -2.07, -3.48, -4.11, -5.09, -5.09, -5.09, 0.53, 0.53, 0.53, 0.53, 0.53, 1.05, 1.16, 1.16, 1.7, 1.55, 1.55, 1.07, 1.07, 1.16, 0.58, 0.58, 0.0, 0.58, 1.16, 1.73, 2.22, 2.23, 2.86, 2.48, 2.51, 2.79, 3.07, 3.07, 3.07, 3.07, 3.07, 3.6, 3.35, 3.35, 3.72, 3.72, 3.35, 3.6, 3.6, 3.35, 3.35, 3.43, 3.43, 2.86, 2.86, 2.86, 2.86, 2.86, 2.48, 2.48, 2.48, 2.48, 2.48, 2.23, 1.8, 1.58, 1.23, 1.23, 1.23, 0.63, 0.57, 0.57, 0.59, 0.53, 0.65, 1.41, 1.3, 1.41, 1.23, 1.6, 1.72, 1.72, 1.55, 1.55, 1.65, 1.49, 2.31, 3.06, 4.5, 5.38, 6.42, 7.79, 10.1, 12.66, 12.31, 7.31, 0.57, 0.57, 2.07, 2.04, 0.73, 0.0, -0.59, -1.16, -1.88, -3.07, -3.07, -3.07, 0.53, 0.53, 0.53, 0.53, 0.53, 1.16, 1.16, 1.16, 1.16, 1.07, 1.07, 1.16, 1.16, 0.59, 0.58, 0.0, 0.0, 0.0, 0.59, 1.19, 1.76, 2.23, 2.23, 2.23, 2.84, 3.14, 3.07, 3.07, 3.07, 3.07, 3.6, 3.6, 3.6, 3.35, 3.72, 3.72, 3.72, 3.35, 3.35, 3.35, 3.35, 2.84, 3.16, 2.86, 2.86, 2.86, 2.86, 2.86, 2.48, 2.48, 2.48, 2.48, 2.48, 2.48, 1.8, 1.58, 1.23, 1.23, 1.23, 1.23, 1.11, 0.57, 0.59, 0.53, 0.54, 0.87, 1.66, 2.4, 2.6, 1.6, 1.6, 0.82, 0.78, 1.45, 1.55, 1.55, 2.26, 3.27, 4.6, 5.38, 5.49, 6.42, 8.56, 11.91, 11.99, 7.93, 3.84, 5.36, 6.9, 6.23, 4.96, 2.12, 0.66, 0.7, 0.0, -0.57, -0.57, -0.57, 0.53, 0.53, 0.53, 0.53, 0.53, 0.59, 1.16, 1.16, 1.07, 1.07, 1.07, 1.16, 0.59, 0.53, 0.58, 0.0, 0.0, 0.0, 0.54, 1.08, 1.76, 1.8, 1.8, 2.23, 2.84, 2.84, 3.35, 3.35, 3.35, 3.35, 3.35, 3.72, 3.88, 3.72, 3.72, 3.72, 3.72, 3.72, 3.35, 3.35, 3.14, 2.84, 2.84, 2.86, 2.86, 2.86, 2.86, 2.86, 2.48, 2.48, 2.48, 2.48, 2.48, 1.8, 1.8, 1.58, 1.76, 1.76, 1.23, 1.23, 1.11, 1.11, 0.59, 0.61, 0.54, 0.99, 1.8, 2.53, 2.4, 2.4, 1.6, 1.6, 0.76, 0.83, 0.79, 1.55, 3.09, 3.69, 4.71, 5.49, 4.71, 4.83, 5.64, 7.11, 8.38, 4.07, 5.64, 6.26, 5.95, 5.78, 5.54, 4.96, 3.69, 3.22, 2.07, 1.84, 1.84, 1.84, 0.53, 0.0, 0.53, 0.53, 0.53, 0.59, 1.16, 1.16, 1.07, 1.07, 1.07, 0.59, 0.53, 0.58, 0.0, 0.0, 0.0, 0.0, 0.54, 1.08, 1.23, 1.8, 1.8, 2.23, 2.86, 3.43, 4.0, 4.0, 4.0, 4.0, 4.27, 3.88, 3.88, 3.88, 3.72, 3.43, 3.43, 3.43, 3.35, 3.35, 3.14, 2.84, 2.84, 2.86, 2.86, 2.86, 2.86, 2.86, 2.48, 2.48, 2.48, 2.48, 2.48, 1.8, 1.8, 1.8, 1.8, 1.58, 1.23, 1.23, 1.11, 1.11, 1.13, 0.61, 0.65, 1.24, 0.99, 1.6, 2.68, 2.53, 3.35, 2.4, 2.4, 1.55, 1.72, 2.35, 3.79, 4.03, 3.91, 3.91, 4.03, 3.2, 3.09, 3.11, 3.8, 4.23, 5.36, 3.51, 2.79, 3.47, 4.73, 5.7, 5.49, 5.3, 3.64, 2.73, 2.73, 2.73, 0.0, 0.0, 0.53, 0.53, 0.59, 0.59, 0.59, 1.16, 1.07, 0.54, 0.59, 0.59, 0.58, 0.0, 0.0, 0.0, 0.0, 0.0, 0.54, 1.19, 1.23, 1.27, 2.23, 2.86, 3.48, 4.07, 4.07, 4.07, 4.29, 4.37, 4.0, 4.0, 4.0, 3.88, 3.72, 3.43, 3.43, 3.43, 3.43, 3.09, 3.14, 2.84, 2.84, 2.84, 2.86, 2.86, 2.86, 2.86, 2.48, 2.48, 2.48, 2.48, 2.48, 1.8, 1.8, 1.8, 1.27, 1.27, 1.27, 1.11, 1.27, 1.27, 1.13, 1.16, 1.2, 1.24, 1.9, 1.9, 1.74, 1.6, 2.68, 2.53, 2.4, 2.98, 2.4, 3.47, 4.16, 3.79, 3.79, 3.4, 3.2, 3.2, 2.4, 1.59, 3.77, 4.23, 2.24, 1.7, 1.88, 2.66, 4.94, 6.23, 5.94, 5.49, 4.56, 3.55, 3.55, 3.55, 0.0, 0.0, 0.0, 0.53, 0.59, 0.59, 0.59, 0.59, 0.54, 0.54, 0.59, 0.0, 0.0, 0.0, 0.0, 0.0, 0.0, 0.0, 0.59, 1.07, 1.08, 1.76, 2.86, 3.49, 3.79, 3.79, 4.11, 4.41, 4.07, 4.07, 4.07, 4.0, 4.0, 3.64, 3.43, 3.43, 3.43, 3.43, 3.43, 3.43, 2.84, 2.84, 2.84, 2.84, 2.23, 2.48, 2.48, 2.48, 2.48, 2.48, 2.48, 2.48, 1.8, 1.8, 1.8, 1.6, 1.13, 1.13, 1.27, 1.27, 1.13, 0.59, 0.61, 0.65, 1.24, 1.26, 0.95, 0.95, 0.8, 1.0, 0.85, 0.79, 2.4, 3.22, 3.35, 4.01, 3.9, 4.16, 3.79, 3.79, 3.0, 3.09, 2.31, 3.95, 6.1, 3.46, 0.4, 1.2, 2.4, 4.12, 5.69, 6.23, 5.13, 4.37, 4.37, 3.69, 3.69, 3.69, 0.0, 0.0, 0.0, 0.0, 0.59, 0.59, 0.59, 0.59, 0.54, 0.54, 0.0, 0.0, 0.0, 0.0, 0.0, 0.0, 0.0, 0.0, 0.59, 0.54, 1.19, 1.73, 2.2, 3.49, 3.79, 4.11, 4.11, 4.11, 4.07, 4.07, 4.07, 3.73, 4.0, 3.78, 3.43, 3.43, 3.43, 3.43, 3.43, 3.43, 3.16, 2.84, 2.84, 2.51, 2.23, 2.48, 2.48, 2.48, 2.48, 2.48, 2.48, 2.48, 1.8, 1.8, 1.8, 1.13, 1.13, 1.13, 1.13, 1.13, 0.59, 0.59, 0.61, 0.65, 0.57, 0.6, 1.2, 1.2, 0.95, 0.0, 0.0, 0.79, 1.55, 2.6, 2.6, 2.4, 4.01, 3.9, 3.79, 4.03, 3.79, 3.91, 4.06, 6.26, 8.99, 5.28, 0.45, 1.58, 3.07, 4.73, 4.94, 5.04, 4.6, 4.0, 3.8, 3.4, 3.4, 3.4, 0.0, 0.0, 0.0, 0.0, 0.0, 0.59, 0.59, 0.59, 0.59, 0.59, 0.0, 0.0, 0.0, 0.0, 0.0, 0.0, 0.0, 0.0, 0.0, 0.54, 1.07, 1.73, 2.4, 3.22, 3.49, 3.78, 4.11, 3.79, 3.79, 4.07, 4.07, 3.73, 3.73, 3.78, 3.43, 3.43, 3.43, 3.43, 3.43, 3.16, 3.16, 2.84, 2.84, 2.23, 2.23, 2.48, 2.48, 2.48, 2.48, 2.48, 2.48, 2.48, 1.8, 1.8, 1.8, 1.13, 1.13, 1.13, 1.13, 1.13, 0.59, 0.59, 0.61, 0.54, 0.57, 0.6, 0.63, 0.89, 0.0, 0.0, 0.0, 0.0, 0.88, 1.7, 2.6, 2.6, 2.4, 2.29, 3.33, 3.79, 3.79, 4.6, 4.68, 5.41, 8.07, 7.22, 3.4, 2.68, 3.32, 4.11, 3.97, 4.28, 4.2, 3.7, 3.27, 3.8, 3.8, 3.8, 0.0, 0.0, 0.0, 0.0, 0.0, 0.0, 0.59, 0.59, 0.59, 0.0, 0.0, 0.0, 0.0, 0.0, 0.0, 0.0, 0.0, 0.0, 0.0, 0.0, 0.54, 1.7, 2.4, 3.49, 3.49, 3.49, 3.49, 4.11, 3.79, 3.79, 4.07, 3.79, 3.48, 3.48, 3.78, 3.43, 3.43, 3.43, 3.16, 3.16, 3.16, 2.86, 2.86, 2.48, 2.48, 2.48, 2.48, 2.48, 2.48, 2.48, 2.48, 1.8, 1.8, 1.8, 1.8, 1.27, 1.13, 1.13, 1.13, 1.13, 0.59, 0.59, 0.61, 0.0, 0.0, 0.0, 0.0, 0.0, 0.0, 0.0, 0.0, 0.0, 0.76, 1.49, 2.53, 2.98, 2.4, 2.4, 2.47, 3.0, 4.03, 4.0, 3.11, 3.07, 4.77, 7.31, 6.32, 4.94, 4.11, 3.64, 2.72, 3.6, 3.44, 4.0, 3.6, 4.0, 4.0, 4.0, 0.0, 0.0, 0.0, 0.0, 0.0, 0.0, 0.0, 0.0, 0.0, 0.0, 0.0, 0.0, 0.0, -0.57, -0.57, 0.0, 0.0, 0.0, 0.0, 0.0, 1.16, 1.7, 2.18, 3.08, 3.49, 3.49, 3.49, 3.49, 3.79, 3.79, 3.49, 3.79, 3.48, 3.48, 3.48, 3.16, 3.43, 3.43, 3.16, 3.16, 2.86, 2.86, 2.48, 2.48, 2.48, 2.48, 2.48, 2.48, 2.48, 2.48, 1.76, 1.58, 1.58, 1.8, 1.27, 1.27, 1.27, 1.13, 1.13, 0.59, 0.59, 0.59, 0.61, 0.0, 0.0, 0.0, 0.0, 0.0, 0.0, 0.0, 0.0, 0.0, 0.76, 1.6, 2.41, 2.53, 2.4, 2.53, 2.6, 3.2, 3.2, 3.15, 2.39, 1.55, 3.12, 5.63, 6.54, 6.44, 4.87, 4.14, 2.66, 2.82, 3.33, 3.8, 3.8, 4.0, 4.0, 4.0, 0.0, 0.0, 0.0, 0.0, 0.0, 0.0, 0.0, 0.0, 0.0, 0.0, 0.0, 0.0, -0.57, -0.57, -0.57, -0.58, 0.0, 0.0, 0.0, 0.53, 1.05, 1.84, 2.36, 2.82, 3.22, 3.49, 3.49, 3.49, 3.78, 3.49, 3.49, 3.49, 3.48, 3.48, 3.48, 3.48, 3.16, 2.86, 2.86, 2.86, 2.86, 2.48, 2.48, 2.48, 2.48, 2.48, 2.48, 2.48, 2.48, 1.76, 1.76, 1.58, 1.58, 1.11, 1.27, 1.27, 1.27, 1.13, 1.13, 0.59, 0.59, 0.59, 0.61, 0.0, 0.0, 0.0, 0.0, 0.0, -0.89, -0.95, 0.0, 0.0, 0.85, 0.99, 0.76, 1.66, 2.53, 1.66, 2.29, 3.2, 2.51, 2.31, 1.5, 1.6, 2.37, 4.67, 6.28, 5.86, 5.46, 4.2, 2.99, 2.12, 2.9, 3.09, 3.6, 4.0, 4.0, 4.0, 0.0, 0.0, 0.0, 0.0, 0.0, 0.0, 0.0, 0.0, 0.0, 0.0, 0.0, 0.0, -0.57, -0.57, -0.57, -0.57, -0.58, 0.0, 0.0, 0.58, 1.14, 1.67, 2.16, 2.16, 2.82, 3.22, 3.49, 3.49, 3.49, 3.49, 3.49, 3.49, 3.48, 3.48, 3.48, 3.15, 2.86, 2.86, 2.86, 2.86, 2.48, 2.48, 2.22, 2.22, 2.22, 2.22, 2.22, 2.22, 1.76, 1.76, 1.76, 1.58, 1.58, 1.11, 1.11, 1.27, 1.27, 1.13, 0.59, 0.59, 0.59, 0.59, 0.51, 0.0, 0.0, 0.0, 0.0, -0.63, -0.63, -0.63, 0.0, 0.0, 0.0, 1.27, 0.85, 0.76, 1.66, 1.41, 1.6, 1.47, 1.63, 1.58, 1.54, 2.28, 3.1, 4.71, 6.4, 6.33, 5.62, 4.87, 4.07, 2.9, 2.2, 2.12, 2.82, 3.51, 3.51, 3.51, 0.0, 0.0, 0.0, 0.0, 0.0, 0.0, 0.0, 0.0, 0.0, 0.0, 0.0, 0.0, -0.57, -0.57, -0.57, -0.57, -0.57, 0.0, 0.0, 0.57, 1.12, 1.65, 2.32, 2.32, 3.04, 2.82, 3.22, 3.49, 3.49, 3.49, 3.22, 3.49, 2.86, 3.15, 3.15, 2.86, 2.86, 2.86, 2.86, 2.48, 2.48, 2.22, 2.22, 2.22, 2.22, 2.22, 2.22, 1.76, 1.76, 1.76, 1.76, 1.76, 1.11, 1.11, 1.11, 1.11, 1.27, 1.27, 0.59, 0.59, 0.59, 0.59, 0.0, 0.0, 0.0, 0.0, 0.0, -0.63, -0.63, -0.89, -0.63, 0.0, 0.0, 0.0, 0.71, 0.71, 0.7, 0.81, 1.47, 0.76, 0.82, 1.49, 1.6, 2.25, 3.87, 5.45, 7.01, 7.01, 6.87, 6.45, 5.41, 3.8, 2.2, 1.47, 1.41, 2.26, 2.26, 2.26, 0.0, 0.0, 0.0, 0.0, 0.0, 0.0, 0.0, 0.0, 0.0, 0.0, 0.0, 0.0, -0.57, -0.57, -0.57, -0.57, -0.57, 0.0, 0.0, 0.57, 1.12, 1.65, 2.32, 2.32, 3.04, 2.82, 3.22, 3.49, 3.49, 3.49, 3.22, 3.49, 2.86, 3.15, 3.15, 2.86, 2.86, 2.86, 2.86, 2.48, 2.48, 2.22, 2.22, 2.22, 2.22, 2.22, 2.22, 1.76, 1.76, 1.76, 1.76, 1.76, 1.11, 1.11, 1.11, 1.11, 1.27, 1.27, 0.59, 0.59, 0.59, 0.59, 0.0, 0.0, 0.0, 0.0, 0.0, -0.63, -0.63, -0.89, -0.63, 0.0, 0.0, 0.0, 0.71, 0.71, 0.88, 0.81, 1.47, 0.76, 0.82, 0.74, 1.58, 2.39, 3.91, 5.48, 7.13, 7.79, 7.9, 7.9, 7.01, 6.09, 3.8, 1.55, 0.7, 1.47, 1.47, 1.47]}]